Time,TemperatureF,DewpointF,PressureIn,WindDirection,WindDirectionDegrees,WindSpeedMPH,WindSpeedGustMPH,Humidity,HourlyPrecipIn,Conditions,Clouds,dailyrainin,SoftwareType,DateUTC
2013-09-10 00:00:00,79.4,74.6,29.60,ENE,58,0.0,0.0,85,0.00,,,0.00,VWS V14.01,2013-09-10 04:00:00,
2013-09-10 00:01:00,79.4,74.6,29.60,ENE,58,0.0,0.0,85,0.00,,,0.00,VWS V14.01,2013-09-10 04:01:00,
2013-09-10 00:02:00,79.4,74.6,29.60,ENE,58,0.0,0.0,85,0.00,,,0.00,VWS V14.01,2013-09-10 04:02:00,
2013-09-10 00:04:00,79.4,74.6,29.59,ENE,58,0.0,0.0,85,0.00,,,0.00,VWS V14.01,2013-09-10 04:04:00,
2013-09-10 00:06:00,79.4,74.6,29.60,ENE,58,0.0,0.0,85,0.00,,,0.00,VWS V14.01,2013-09-10 04:06:00,
2013-09-10 00:08:00,79.2,74.4,29.60,ENE,58,0.0,0.0,85,0.00,,,0.00,VWS V14.01,2013-09-10 04:08:00,
2013-09-10 00:10:00,79.4,74.7,29.60,ENE,58,0.0,0.0,86,0.00,,,0.00,VWS V14.01,2013-09-10 04:10:00,
2013-09-10 00:11:00,79.4,74.6,29.60,ENE,58,0.0,0.0,85,0.00,,,0.00,VWS V14.01,2013-09-10 04:11:00,
2013-09-10 00:12:00,79.2,74.4,29.60,ENE,58,0.0,0.0,85,0.00,,,0.00,VWS V14.01,2013-09-10 04:12:00,
2013-09-10 00:14:00,79.3,74.5,29.60,ENE,58,0.0,0.0,85,0.00,,,0.00,VWS V14.01,2013-09-10 04:14:00,
2013-09-10 00:16:00,79.3,74.5,29.60,ENE,58,0.0,0.0,85,0.00,,,0.00,VWS V14.01,2013-09-10 04:16:00,
2013-09-10 00:18:00,79.2,74.4,29.60,ENE,58,0.0,0.0,85,0.00,,,0.00,VWS V14.01,2013-09-10 04:18:00,
2013-09-10 00:20:00,79.2,74.5,29.60,ENE,58,0.0,0.0,86,0.00,,,0.00,VWS V14.01,2013-09-10 04:20:00,
2013-09-10 00:21:00,79.3,74.6,29.60,ENE,58,0.0,0.0,86,0.00,,,0.00,VWS V14.01,2013-09-10 04:21:00,
2013-09-10 00:22:00,79.1,74.4,29.60,ENE,58,0.0,0.0,86,0.00,,,0.00,VWS V14.01,2013-09-10 04:22:00,
2013-09-10 00:24:00,79.2,74.5,29.60,ENE,58,0.0,0.0,86,0.00,,,0.00,VWS V14.01,2013-09-10 04:24:00,
2013-09-10 00:26:00,79.2,74.7,29.60,ENE,58,0.0,0.0,86,0.00,,,0.00,VWS V14.01,2013-09-10 04:26:00,
2013-09-10 00:28:00,79.2,74.6,29.59,ENE,58,0.0,0.0,86,0.00,,,0.00,VWS V14.01,2013-09-10 04:28:00,
2013-09-10 00:30:00,79.1,74.5,29.59,ENE,58,0.0,0.0,86,0.00,,,0.00,VWS V14.01,2013-09-10 04:30:00,
2013-09-10 00:31:00,79.1,74.5,29.59,ENE,58,0.0,0.0,86,0.00,,,0.00,VWS V14.01,2013-09-10 04:31:00,
2013-09-10 00:32:00,79.1,74.4,29.59,ENE,58,0.0,0.0,86,0.00,,,0.00,VWS V14.01,2013-09-10 04:32:00,
2013-09-10 00:34:00,79.1,74.5,29.59,ENE,58,0.0,0.0,86,0.00,,,0.00,VWS V14.01,2013-09-10 04:34:00,
2013-09-10 00:36:00,79.0,74.5,29.59,ENE,58,0.0,0.0,86,0.00,,,0.00,VWS V14.01,2013-09-10 04:36:00,
2013-09-10 00:38:00,79.1,74.6,29.59,ENE,58,0.0,0.0,86,0.00,,,0.00,VWS V14.01,2013-09-10 04:38:00,
2013-09-10 00:40:00,78.9,74.4,29.59,ENE,58,0.0,0.0,86,0.00,,,0.00,VWS V14.01,2013-09-10 04:40:00,
2013-09-10 00:41:00,78.9,74.4,29.59,ENE,58,0.0,0.0,86,0.00,,,0.00,VWS V14.01,2013-09-10 04:41:00,
2013-09-10 00:42:00,79.0,74.5,29.59,ENE,58,0.0,0.0,86,0.00,,,0.00,VWS V14.01,2013-09-10 04:42:00,
2013-09-10 00:44:00,79.0,74.5,29.59,ENE,58,0.0,0.0,86,0.00,,,0.00,VWS V14.01,2013-09-10 04:44:00,
2013-09-10 00:46:00,78.9,74.4,29.59,ENE,58,0.0,0.0,86,0.00,,,0.00,VWS V14.01,2013-09-10 04:46:00,
2013-09-10 00:48:00,79.0,74.6,29.59,ENE,58,0.0,0.0,86,0.00,,,0.00,VWS V14.01,2013-09-10 04:48:00,
2013-09-10 00:50:00,78.8,74.4,29.59,ENE,58,0.0,0.0,86,0.00,,,0.00,VWS V14.01,2013-09-10 04:50:00,
2013-09-10 00:51:00,78.8,74.4,29.59,ENE,58,0.0,0.0,86,0.00,,,0.00,VWS V14.01,2013-09-10 04:51:00,
2013-09-10 00:52:00,78.7,74.3,29.59,ENE,58,0.0,0.0,86,0.00,,,0.00,VWS V14.01,2013-09-10 04:52:00,
2013-09-10 00:54:00,78.7,74.4,29.59,ENE,58,0.0,0.0,87,0.00,,,0.00,VWS V14.01,2013-09-10 04:54:00,
2013-09-10 00:56:00,78.5,74.2,29.59,ENE,58,0.0,0.0,87,0.00,,,0.00,VWS V14.01,2013-09-10 04:56:00,
2013-09-10 00:58:00,78.8,74.5,29.59,ENE,58,0.0,0.0,87,0.00,,,0.00,VWS V14.01,2013-09-10 04:58:00,
2013-09-10 01:00:00,78.4,74.1,29.59,ENE,58,0.0,0.0,87,0.00,,,0.00,VWS V14.01,2013-09-10 05:00:00,
2013-09-10 01:01:00,78.5,74.2,29.59,ENE,58,0.0,0.0,87,0.00,,,0.00,VWS V14.01,2013-09-10 05:01:00,
2013-09-10 01:02:00,78.4,74.1,29.58,ENE,58,0.0,0.0,87,0.00,,,0.00,VWS V14.01,2013-09-10 05:02:00,
2013-09-10 01:04:00,78.5,74.3,29.59,ENE,58,0.0,0.0,87,0.00,,,0.00,VWS V14.01,2013-09-10 05:04:00,
2013-09-10 01:06:00,78.5,74.3,29.59,ENE,58,0.0,0.0,87,0.00,,,0.00,VWS V14.01,2013-09-10 05:06:00,
2013-09-10 01:08:00,78.5,74.3,29.59,ENE,58,0.0,0.0,87,0.00,,,0.00,VWS V14.01,2013-09-10 05:08:00,
2013-09-10 01:10:00,78.5,74.3,29.59,ENE,58,0.0,0.0,87,0.00,,,0.00,VWS V14.01,2013-09-10 05:10:00,
2013-09-10 01:11:00,78.5,74.3,29.59,ENE,58,0.0,0.0,87,0.00,,,0.00,VWS V14.01,2013-09-10 05:11:00,
2013-09-10 01:12:00,78.5,74.3,29.59,ENE,58,0.0,0.0,87,0.00,,,0.00,VWS V14.01,2013-09-10 05:12:00,
2013-09-10 01:14:00,78.7,74.5,29.59,ENE,58,0.0,0.0,87,0.00,,,0.00,VWS V14.01,2013-09-10 05:14:00,
2013-09-10 01:16:00,78.8,74.6,29.59,ENE,58,0.0,0.0,87,0.00,,,0.00,VWS V14.01,2013-09-10 05:16:00,
2013-09-10 01:18:00,78.7,74.5,29.58,ENE,58,0.0,0.0,87,0.00,,,0.00,VWS V14.01,2013-09-10 05:18:00,
2013-09-10 01:20:00,78.7,74.5,29.59,ENE,58,0.0,0.0,87,0.00,,,0.00,VWS V14.01,2013-09-10 05:20:00,
2013-09-10 01:21:00,78.7,74.6,29.59,ENE,58,0.0,0.0,87,0.00,,,0.00,VWS V14.01,2013-09-10 05:21:00,
2013-09-10 01:22:00,78.4,74.3,29.58,ENE,58,0.0,0.0,87,0.00,,,0.00,VWS V14.01,2013-09-10 05:22:00,
2013-09-10 01:24:00,78.5,74.4,29.58,ENE,58,0.0,0.0,87,0.00,,,0.00,VWS V14.01,2013-09-10 05:24:00,
2013-09-10 01:26:00,78.5,74.5,29.58,ENE,58,0.0,0.0,88,0.00,,,0.00,VWS V14.01,2013-09-10 05:26:00,
2013-09-10 01:28:00,78.4,74.4,29.59,ENE,58,0.0,0.0,88,0.00,,,0.00,VWS V14.01,2013-09-10 05:28:00,
2013-09-10 01:30:00,78.4,74.4,29.59,ENE,58,0.0,0.0,88,0.00,,,0.00,VWS V14.01,2013-09-10 05:30:00,
2013-09-10 01:31:00,78.4,74.4,29.59,ENE,58,0.0,0.0,88,0.00,,,0.00,VWS V14.01,2013-09-10 05:31:00,
2013-09-10 01:32:00,78.3,74.3,29.59,ENE,58,0.0,0.0,88,0.00,,,0.00,VWS V14.01,2013-09-10 05:32:00,
2013-09-10 01:34:00,78.4,74.4,29.59,ENE,58,0.0,0.0,88,0.00,,,0.00,VWS V14.01,2013-09-10 05:34:00,
2013-09-10 01:35:00,78.3,74.3,29.59,ENE,58,0.0,0.0,88,0.00,,,0.00,VWS V14.01,2013-09-10 05:35:00,
2013-09-10 01:36:00,78.4,74.4,29.59,ENE,58,0.0,0.0,88,0.00,,,0.00,VWS V14.01,2013-09-10 05:36:00,
2013-09-10 01:38:00,78.4,74.4,29.59,ENE,58,0.0,0.0,88,0.00,,,0.00,VWS V14.01,2013-09-10 05:38:00,
2013-09-10 01:40:00,78.7,74.7,29.59,ENE,58,0.0,0.0,88,0.00,,,0.00,VWS V14.01,2013-09-10 05:40:00,
2013-09-10 01:42:00,78.3,74.3,29.59,ENE,58,0.0,0.0,88,0.00,,,0.00,VWS V14.01,2013-09-10 05:42:00,
2013-09-10 01:44:00,78.3,74.3,29.59,ENE,58,0.0,0.0,88,0.00,,,0.00,VWS V14.01,2013-09-10 05:44:00,
2013-09-10 01:45:00,78.3,74.3,29.58,ENE,58,0.0,0.0,88,0.00,,,0.00,VWS V14.01,2013-09-10 05:45:00,
2013-09-10 01:46:00,78.3,74.4,29.59,ENE,58,0.0,0.0,88,0.00,,,0.00,VWS V14.01,2013-09-10 05:46:00,
2013-09-10 01:48:00,78.3,74.4,29.59,ENE,58,0.0,0.0,88,0.00,,,0.00,VWS V14.01,2013-09-10 05:48:00,
2013-09-10 01:50:00,78.2,74.3,29.59,ENE,58,0.0,0.0,88,0.00,,,0.00,VWS V14.01,2013-09-10 05:50:00,
2013-09-10 01:52:00,78.3,74.4,29.59,ENE,58,0.0,0.0,88,0.00,,,0.00,VWS V14.01,2013-09-10 05:52:00,
2013-09-10 01:54:00,78.2,74.3,29.59,ENE,58,0.0,0.0,88,0.00,,,0.00,VWS V14.01,2013-09-10 05:54:00,
2013-09-10 01:55:00,78.3,74.4,29.59,ENE,58,0.0,0.0,88,0.00,,,0.00,VWS V14.01,2013-09-10 05:55:00,
2013-09-10 01:56:00,78.3,74.4,29.59,ENE,58,0.0,0.0,88,0.00,,,0.00,VWS V14.01,2013-09-10 05:56:00,
2013-09-10 01:58:00,78.2,74.3,29.59,ENE,58,0.0,0.0,88,0.00,,,0.00,VWS V14.01,2013-09-10 05:58:00,
2013-09-10 02:00:00,78.1,74.3,29.58,ENE,58,0.0,0.0,88,0.00,,,0.00,VWS V14.01,2013-09-10 06:00:00,
2013-09-10 02:02:00,78.2,74.4,29.58,ENE,58,0.0,0.0,88,0.00,,,0.00,VWS V14.01,2013-09-10 06:02:00,
2013-09-10 02:04:00,78.0,74.3,29.58,ENE,58,0.0,0.0,88,0.00,,,0.00,VWS V14.01,2013-09-10 06:04:00,
2013-09-10 02:05:00,78.2,74.6,29.58,ENE,58,0.0,0.0,89,0.00,,,0.00,VWS V14.01,2013-09-10 06:05:00,
2013-09-10 02:06:00,78.2,74.5,29.58,ENE,58,0.0,0.0,88,0.00,,,0.00,VWS V14.01,2013-09-10 06:06:00,
2013-09-10 02:08:00,78.1,74.4,29.58,ENE,58,0.0,0.0,88,0.00,,,0.00,VWS V14.01,2013-09-10 06:08:00,
2013-09-10 02:10:00,78.1,74.4,29.58,ENE,58,0.0,0.0,88,0.00,,,0.00,VWS V14.01,2013-09-10 06:10:00,
2013-09-10 02:12:00,78.1,74.5,29.58,ENE,58,0.0,0.0,89,0.00,,,0.00,VWS V14.01,2013-09-10 06:12:00,
2013-09-10 02:14:00,77.8,74.2,29.58,ENE,58,0.0,0.0,89,0.00,,,0.00,VWS V14.01,2013-09-10 06:14:00,
2013-09-10 02:15:00,77.9,74.3,29.58,ENE,58,0.0,0.0,89,0.00,,,0.00,VWS V14.01,2013-09-10 06:15:00,
2013-09-10 02:16:00,77.8,74.2,29.58,ENE,58,0.0,0.0,89,0.00,,,0.00,VWS V14.01,2013-09-10 06:16:00,
2013-09-10 02:18:00,77.8,74.3,29.58,ENE,58,0.0,0.0,89,0.00,,,0.00,VWS V14.01,2013-09-10 06:18:00,
2013-09-10 02:20:00,77.9,74.4,29.58,ENE,58,0.0,0.0,89,0.00,,,0.00,VWS V14.01,2013-09-10 06:20:00,
2013-09-10 02:22:00,77.9,74.5,29.58,ENE,58,0.0,0.0,89,0.00,,,0.00,VWS V14.01,2013-09-10 06:22:00,
2013-09-10 02:24:00,77.7,74.3,29.58,ENE,58,0.0,0.0,89,0.00,,,0.00,VWS V14.01,2013-09-10 06:24:00,
2013-09-10 02:25:00,77.8,74.4,29.58,ENE,58,0.0,0.0,89,0.00,,,0.00,VWS V14.01,2013-09-10 06:25:00,
2013-09-10 02:26:00,77.7,74.4,29.58,ENE,58,0.0,0.0,90,0.00,,,0.00,VWS V14.01,2013-09-10 06:26:00,
2013-09-10 02:28:00,77.8,74.4,29.58,ENE,58,0.0,0.0,89,0.00,,,0.00,VWS V14.01,2013-09-10 06:28:00,
2013-09-10 02:30:00,77.8,74.4,29.58,ENE,58,0.0,0.0,89,0.00,,,0.00,VWS V14.01,2013-09-10 06:30:00,
2013-09-10 02:32:00,77.9,74.4,29.58,ENE,58,0.0,0.0,89,0.00,,,0.00,VWS V14.01,2013-09-10 06:32:00,
2013-09-10 02:34:00,77.8,74.4,29.58,ENE,58,0.0,0.0,89,0.00,,,0.00,VWS V14.01,2013-09-10 06:34:00,
2013-09-10 02:35:00,78.0,74.5,29.58,ENE,58,0.0,0.0,89,0.00,,,0.00,VWS V14.01,2013-09-10 06:35:00,
2013-09-10 02:36:00,77.9,74.5,29.58,ENE,58,0.0,0.0,89,0.00,,,0.00,VWS V14.01,2013-09-10 06:36:00,
2013-09-10 02:38:00,77.9,74.5,29.58,ENE,58,0.0,0.0,89,0.00,,,0.00,VWS V14.01,2013-09-10 06:38:00,
2013-09-10 02:40:00,77.9,74.4,29.58,ENE,58,0.0,0.0,89,0.00,,,0.00,VWS V14.01,2013-09-10 06:40:00,
2013-09-10 02:42:00,77.9,74.4,29.58,ENE,58,0.0,0.0,89,0.00,,,0.00,VWS V14.01,2013-09-10 06:42:00,
2013-09-10 02:44:00,77.9,74.4,29.58,ENE,58,0.0,0.0,89,0.00,,,0.00,VWS V14.01,2013-09-10 06:44:00,
2013-09-10 02:45:00,77.9,74.4,29.58,ENE,58,0.0,0.0,89,0.00,,,0.00,VWS V14.01,2013-09-10 06:45:00,
2013-09-10 02:46:00,77.8,74.3,29.58,ENE,58,0.0,0.0,89,0.00,,,0.00,VWS V14.01,2013-09-10 06:46:00,
2013-09-10 02:48:00,77.9,74.4,29.58,ENE,58,0.0,0.0,89,0.00,,,0.00,VWS V14.01,2013-09-10 06:48:00,
2013-09-10 02:50:00,77.9,74.4,29.58,ENE,58,0.0,0.0,89,0.00,,,0.00,VWS V14.01,2013-09-10 06:50:00,
2013-09-10 02:52:00,77.9,74.4,29.58,ENE,58,0.0,0.0,89,0.00,,,0.00,VWS V14.01,2013-09-10 06:52:00,
2013-09-10 02:54:00,77.9,74.4,29.58,ENE,58,0.0,0.0,89,0.00,,,0.00,VWS V14.01,2013-09-10 06:54:00,
2013-09-10 02:55:00,77.8,74.3,29.58,ENE,58,0.0,0.0,89,0.00,,,0.00,VWS V14.01,2013-09-10 06:55:00,
2013-09-10 02:56:00,77.7,74.2,29.58,ENE,58,0.0,0.0,89,0.00,,,0.00,VWS V14.01,2013-09-10 06:56:00,
2013-09-10 02:58:00,77.8,74.4,29.58,ENE,58,0.0,0.0,89,0.00,,,0.00,VWS V14.01,2013-09-10 06:58:00,
2013-09-10 03:00:00,77.7,74.3,29.57,ENE,58,0.0,0.0,89,0.00,,,0.00,VWS V14.01,2013-09-10 07:00:00,
2013-09-10 03:02:00,77.7,74.4,29.57,ENE,58,0.0,0.0,90,0.00,,,0.00,VWS V14.01,2013-09-10 07:02:00,
2013-09-10 03:04:00,77.8,74.6,29.57,ENE,58,0.0,0.0,90,0.00,,,0.00,VWS V14.01,2013-09-10 07:04:00,
2013-09-10 03:05:00,77.8,74.5,29.57,ENE,58,0.0,0.0,90,0.00,,,0.00,VWS V14.01,2013-09-10 07:05:00,
2013-09-10 03:06:00,77.5,74.2,29.57,ENE,58,0.0,0.0,90,0.00,,,0.00,VWS V14.01,2013-09-10 07:06:00,
2013-09-10 03:08:00,77.3,74.0,29.57,ENE,58,0.0,0.0,90,0.00,,,0.00,VWS V14.01,2013-09-10 07:08:00,
2013-09-10 03:10:00,77.4,74.2,29.57,ENE,58,0.0,0.0,90,0.00,,,0.00,VWS V14.01,2013-09-10 07:10:00,
2013-09-10 03:12:00,77.3,74.1,29.57,ENE,58,0.0,0.0,90,0.00,,,0.00,VWS V14.01,2013-09-10 07:12:00,
2013-09-10 03:14:00,77.3,74.1,29.57,ENE,58,0.0,0.0,90,0.00,,,0.00,VWS V14.01,2013-09-10 07:14:00,
2013-09-10 03:15:00,77.4,74.2,29.57,ENE,58,0.0,0.0,90,0.00,,,0.00,VWS V14.01,2013-09-10 07:15:00,
2013-09-10 03:16:00,77.2,74.0,29.57,ENE,58,0.0,0.0,90,0.00,,,0.00,VWS V14.01,2013-09-10 07:16:00,
2013-09-10 03:18:00,77.3,74.2,29.57,ENE,58,0.0,0.0,90,0.00,,,0.00,VWS V14.01,2013-09-10 07:18:00,
2013-09-10 03:20:00,77.3,74.2,29.57,ENE,58,0.0,0.0,90,0.00,,,0.00,VWS V14.01,2013-09-10 07:20:00,
2013-09-10 03:22:00,77.2,74.1,29.57,ENE,58,0.0,0.0,90,0.00,,,0.00,VWS V14.01,2013-09-10 07:22:00,
2013-09-10 03:24:00,77.2,74.1,29.57,ENE,58,0.0,0.0,90,0.00,,,0.00,VWS V14.01,2013-09-10 07:24:00,
2013-09-10 03:25:00,77.3,74.2,29.57,ENE,58,0.0,0.0,90,0.00,,,0.00,VWS V14.01,2013-09-10 07:25:00,
2013-09-10 03:26:00,77.3,74.2,29.57,ENE,58,0.0,0.0,90,0.00,,,0.00,VWS V14.01,2013-09-10 07:26:00,
2013-09-10 03:28:00,77.1,74.0,29.57,ENE,58,0.0,0.0,90,0.00,,,0.00,VWS V14.01,2013-09-10 07:28:00,
2013-09-10 03:30:00,77.3,74.2,29.57,ENE,58,0.0,0.0,90,0.00,,,0.00,VWS V14.01,2013-09-10 07:30:00,
2013-09-10 03:32:00,77.1,74.1,29.57,ENE,58,0.0,0.0,90,0.00,,,0.00,VWS V14.01,2013-09-10 07:32:00,
2013-09-10 03:34:00,77.1,74.1,29.57,ENE,58,0.0,0.0,90,0.00,,,0.00,VWS V14.01,2013-09-10 07:34:00,
2013-09-10 03:35:00,77.2,74.2,29.57,ENE,58,0.0,0.0,90,0.00,,,0.00,VWS V14.01,2013-09-10 07:35:00,
2013-09-10 03:36:00,77.3,74.3,29.57,ENE,58,0.0,0.0,90,0.00,,,0.00,VWS V14.01,2013-09-10 07:36:00,
2013-09-10 03:38:00,77.2,74.2,29.57,ENE,58,0.0,0.0,90,0.00,,,0.00,VWS V14.01,2013-09-10 07:38:00,
2013-09-10 03:40:00,77.2,74.2,29.57,ENE,58,0.0,0.0,90,0.00,,,0.00,VWS V14.01,2013-09-10 07:40:00,
2013-09-10 03:42:00,77.4,74.3,29.57,ENE,58,0.0,0.0,90,0.00,,,0.00,VWS V14.01,2013-09-10 07:42:00,
2013-09-10 03:44:00,77.2,74.1,29.57,ENE,58,0.0,0.0,90,0.00,,,0.00,VWS V14.01,2013-09-10 07:44:00,
2013-09-10 03:45:00,77.2,74.1,29.57,ENE,58,0.0,0.0,90,0.00,,,0.00,VWS V14.01,2013-09-10 07:45:00,
2013-09-10 03:46:00,77.2,74.1,29.57,ENE,58,0.0,0.0,90,0.00,,,0.00,VWS V14.01,2013-09-10 07:46:00,
2013-09-10 03:48:00,77.1,74.0,29.57,ENE,58,0.0,0.0,90,0.00,,,0.00,VWS V14.01,2013-09-10 07:48:00,
2013-09-10 03:50:00,77.2,74.1,29.57,ENE,58,0.0,0.0,90,0.00,,,0.00,VWS V14.01,2013-09-10 07:50:00,
2013-09-10 03:52:00,77.2,74.1,29.57,ENE,58,0.0,0.0,90,0.00,,,0.00,VWS V14.01,2013-09-10 07:52:00,
2013-09-10 03:54:00,77.1,74.0,29.56,ENE,58,0.0,0.0,90,0.00,,,0.00,VWS V14.01,2013-09-10 07:54:00,
2013-09-10 03:55:00,77.2,74.1,29.57,ENE,58,0.0,0.0,90,0.00,,,0.00,VWS V14.01,2013-09-10 07:55:00,
2013-09-10 03:56:00,77.2,74.1,29.57,ENE,58,0.0,0.0,90,0.00,,,0.00,VWS V14.01,2013-09-10 07:56:00,
2013-09-10 03:58:00,77.1,74.1,29.56,ENE,58,0.0,0.0,90,0.00,,,0.00,VWS V14.01,2013-09-10 07:58:00,
2013-09-10 04:00:00,77.1,74.1,29.56,ENE,58,0.0,0.0,90,0.00,,,0.00,VWS V14.01,2013-09-10 08:00:00,
2013-09-10 04:02:00,77.3,74.2,29.56,ENE,58,0.0,0.0,90,0.00,,,0.00,VWS V14.01,2013-09-10 08:02:00,
2013-09-10 04:04:00,77.1,74.1,29.56,ENE,58,0.0,0.0,90,0.00,,,0.00,VWS V14.01,2013-09-10 08:04:00,
2013-09-10 04:05:00,77.0,74.0,29.56,ENE,58,0.0,0.0,90,0.00,,,0.00,VWS V14.01,2013-09-10 08:05:00,
2013-09-10 04:06:00,77.0,74.0,29.56,ENE,58,0.0,0.0,90,0.00,,,0.00,VWS V14.01,2013-09-10 08:06:00,
2013-09-10 04:08:00,77.0,74.0,29.56,ENE,58,0.0,0.0,91,0.00,,,0.00,VWS V14.01,2013-09-10 08:08:00,
2013-09-10 04:10:00,76.9,74.0,29.56,ENE,58,0.0,0.0,91,0.00,,,0.00,VWS V14.01,2013-09-10 08:10:00,
2013-09-10 04:12:00,76.9,74.0,29.56,ENE,58,0.0,0.0,91,0.00,,,0.00,VWS V14.01,2013-09-10 08:12:00,
2013-09-10 04:14:00,77.0,74.1,29.56,ENE,58,0.0,0.0,91,0.00,,,0.00,VWS V14.01,2013-09-10 08:14:00,
2013-09-10 04:15:00,76.9,74.0,29.56,ENE,58,0.0,0.0,91,0.00,,,0.00,VWS V14.01,2013-09-10 08:15:00,
2013-09-10 04:16:00,76.9,74.0,29.56,ENE,58,0.0,0.0,91,0.00,,,0.00,VWS V14.01,2013-09-10 08:16:00,
2013-09-10 04:18:00,76.9,74.0,29.56,ENE,58,0.0,0.0,91,0.00,,,0.00,VWS V14.01,2013-09-10 08:18:00,
2013-09-10 04:20:00,76.9,74.0,29.56,ENE,58,0.0,0.0,91,0.00,,,0.00,VWS V14.01,2013-09-10 08:20:00,
2013-09-10 04:22:00,76.9,74.0,29.56,ENE,58,0.0,0.0,91,0.00,,,0.00,VWS V14.01,2013-09-10 08:22:00,
2013-09-10 04:24:00,76.9,74.0,29.56,ENE,58,0.0,0.0,91,0.00,,,0.00,VWS V14.01,2013-09-10 08:24:00,
2013-09-10 04:25:00,76.9,74.0,29.56,ENE,58,0.0,0.0,91,0.00,,,0.00,VWS V14.01,2013-09-10 08:25:00,
2013-09-10 04:26:00,76.9,74.0,29.56,ENE,58,0.0,0.0,91,0.00,,,0.00,VWS V14.01,2013-09-10 08:26:00,
2013-09-10 04:28:00,76.9,74.0,29.56,ENE,58,0.0,0.0,91,0.00,,,0.00,VWS V14.01,2013-09-10 08:28:00,
2013-09-10 04:30:00,76.9,74.0,29.56,ENE,58,0.0,0.0,91,0.00,,,0.00,VWS V14.01,2013-09-10 08:30:00,
2013-09-10 04:32:00,76.9,74.0,29.56,ENE,58,0.0,0.0,91,0.00,,,0.00,VWS V14.01,2013-09-10 08:32:00,
2013-09-10 04:34:00,77.0,74.1,29.56,ENE,58,0.0,0.0,91,0.00,,,0.00,VWS V14.01,2013-09-10 08:34:00,
2013-09-10 04:35:00,77.0,74.1,29.56,ENE,58,0.0,0.0,91,0.00,,,0.00,VWS V14.01,2013-09-10 08:35:00,
2013-09-10 04:36:00,76.9,74.0,29.56,ENE,58,0.0,0.0,91,0.00,,,0.00,VWS V14.01,2013-09-10 08:36:00,
2013-09-10 04:38:00,76.9,74.0,29.57,ENE,58,0.0,0.0,91,0.00,,,0.00,VWS V14.01,2013-09-10 08:38:00,
2013-09-10 04:40:00,76.9,74.0,29.57,ENE,58,0.0,0.0,91,0.00,,,0.00,VWS V14.01,2013-09-10 08:40:00,
2013-09-10 04:42:00,76.8,73.9,29.57,ENE,58,0.0,0.0,91,0.00,,,0.00,VWS V14.01,2013-09-10 08:42:00,
2013-09-10 04:44:00,77.1,74.2,29.57,ENE,58,0.0,0.0,91,0.00,,,0.00,VWS V14.01,2013-09-10 08:44:00,
2013-09-10 04:45:00,76.8,73.9,29.57,ENE,58,0.0,0.0,91,0.00,,,0.00,VWS V14.01,2013-09-10 08:45:00,
2013-09-10 04:46:00,76.9,74.0,29.57,ENE,58,0.0,0.0,91,0.00,,,0.00,VWS V14.01,2013-09-10 08:46:00,
2013-09-10 04:48:00,76.9,74.0,29.57,ENE,58,0.0,0.0,91,0.00,,,0.00,VWS V14.01,2013-09-10 08:48:00,
2013-09-10 04:50:00,77.0,74.1,29.57,ENE,58,0.0,0.0,91,0.00,,,0.00,VWS V14.01,2013-09-10 08:50:00,
2013-09-10 04:52:00,76.8,73.9,29.57,ENE,58,0.0,0.0,91,0.00,,,0.00,VWS V14.01,2013-09-10 08:52:00,
2013-09-10 04:54:00,76.9,74.0,29.57,ENE,58,0.0,0.0,91,0.00,,,0.00,VWS V14.01,2013-09-10 08:54:00,
2013-09-10 04:55:00,76.7,73.8,29.57,ENE,58,0.0,0.0,91,0.00,,,0.00,VWS V14.01,2013-09-10 08:55:00,
2013-09-10 04:56:00,76.9,74.0,29.57,ENE,58,0.0,0.0,91,0.00,,,0.00,VWS V14.01,2013-09-10 08:56:00,
2013-09-10 04:58:00,76.7,73.8,29.57,ENE,58,0.0,0.0,91,0.00,,,0.00,VWS V14.01,2013-09-10 08:58:00,
2013-09-10 05:00:00,76.7,73.8,29.57,ENE,58,0.0,0.0,91,0.00,,,0.00,VWS V14.01,2013-09-10 09:00:00,
2013-09-10 05:02:00,76.5,73.7,29.57,ENE,58,0.0,0.0,91,0.00,,,0.00,VWS V14.01,2013-09-10 09:02:00,
2013-09-10 05:04:00,76.6,73.8,29.57,ENE,58,0.0,0.0,91,0.00,,,0.00,VWS V14.01,2013-09-10 09:04:00,
2013-09-10 05:05:00,76.4,73.6,29.57,ENE,58,0.0,0.0,91,0.00,,,0.00,VWS V14.01,2013-09-10 09:05:00,
2013-09-10 05:06:00,76.7,73.9,29.57,ENE,58,0.0,0.0,91,0.00,,,0.00,VWS V14.01,2013-09-10 09:06:00,
2013-09-10 05:08:00,76.4,73.6,29.57,ENE,58,0.0,0.0,91,0.00,,,0.00,VWS V14.01,2013-09-10 09:08:00,
2013-09-10 05:10:00,76.5,73.7,29.57,ENE,58,0.0,0.0,91,0.00,,,0.00,VWS V14.01,2013-09-10 09:10:00,
2013-09-10 05:12:00,76.6,73.8,29.57,ENE,58,0.0,0.0,91,0.00,,,0.00,VWS V14.01,2013-09-10 09:12:00,
2013-09-10 05:14:00,76.4,73.7,29.57,ENE,58,0.0,0.0,91,0.00,,,0.00,VWS V14.01,2013-09-10 09:14:00,
2013-09-10 05:15:00,76.5,73.8,29.57,ENE,58,0.0,0.0,91,0.00,,,0.00,VWS V14.01,2013-09-10 09:15:00,
2013-09-10 05:16:00,76.5,73.8,29.57,ENE,58,0.0,0.0,91,0.00,,,0.00,VWS V14.01,2013-09-10 09:16:00,
2013-09-10 05:18:00,76.4,73.7,29.57,ENE,58,0.0,0.0,91,0.00,,,0.00,VWS V14.01,2013-09-10 09:18:00,
2013-09-10 05:20:00,76.3,73.6,29.57,ENE,58,0.0,0.0,91,0.00,,,0.00,VWS V14.01,2013-09-10 09:20:00,
2013-09-10 05:22:00,76.4,73.7,29.57,ENE,58,0.0,0.0,91,0.00,,,0.00,VWS V14.01,2013-09-10 09:22:00,
2013-09-10 05:24:00,76.3,73.6,29.57,ENE,58,0.0,0.0,91,0.00,,,0.00,VWS V14.01,2013-09-10 09:24:00,
2013-09-10 05:25:00,76.4,73.7,29.57,ENE,58,0.0,0.0,91,0.00,,,0.00,VWS V14.01,2013-09-10 09:25:00,
2013-09-10 05:26:00,76.6,73.9,29.57,ENE,58,0.0,0.0,91,0.00,,,0.00,VWS V14.01,2013-09-10 09:26:00,
2013-09-10 05:28:00,76.5,73.8,29.57,ENE,58,0.0,0.0,91,0.00,,,0.00,VWS V14.01,2013-09-10 09:28:00,
2013-09-10 05:30:00,76.6,73.9,29.57,ENE,58,0.0,0.0,91,0.00,,,0.00,VWS V14.01,2013-09-10 09:30:00,
2013-09-10 05:32:00,76.5,73.8,29.57,ENE,58,0.0,0.0,91,0.00,,,0.00,VWS V14.01,2013-09-10 09:32:00,
2013-09-10 05:34:00,76.4,73.7,29.58,ENE,58,0.0,0.0,91,0.00,,,0.00,VWS V14.01,2013-09-10 09:34:00,
2013-09-10 05:35:00,76.5,73.8,29.58,ENE,58,0.0,0.0,91,0.00,,,0.00,VWS V14.01,2013-09-10 09:35:00,
2013-09-10 05:36:00,76.5,73.8,29.58,ENE,58,0.0,0.0,91,0.00,,,0.00,VWS V14.01,2013-09-10 09:36:00,
2013-09-10 05:38:00,76.7,74.0,29.58,ENE,58,0.0,0.0,91,0.00,,,0.00,VWS V14.01,2013-09-10 09:38:00,
2013-09-10 05:40:00,76.7,74.0,29.58,ENE,58,0.0,0.0,91,0.00,,,0.00,VWS V14.01,2013-09-10 09:40:00,
2013-09-10 05:42:00,76.7,73.9,29.58,ENE,58,0.0,0.0,91,0.00,,,0.00,VWS V14.01,2013-09-10 09:42:00,
2013-09-10 05:44:00,76.7,73.9,29.58,ENE,58,0.0,0.0,91,0.00,,,0.00,VWS V14.01,2013-09-10 09:44:00,
2013-09-10 05:45:00,76.7,73.9,29.58,ENE,58,0.0,0.0,91,0.00,,,0.00,VWS V14.01,2013-09-10 09:45:00,
2013-09-10 05:46:00,76.6,73.8,29.58,ENE,58,0.0,0.0,91,0.00,,,0.00,VWS V14.01,2013-09-10 09:46:00,
2013-09-10 05:48:00,76.7,73.9,29.58,ENE,58,0.0,0.0,91,0.00,,,0.00,VWS V14.01,2013-09-10 09:48:00,
2013-09-10 05:50:00,76.5,73.8,29.58,ENE,58,0.0,0.0,91,0.00,,,0.00,VWS V14.01,2013-09-10 09:50:00,
2013-09-10 05:52:00,76.6,73.8,29.58,ENE,58,0.0,0.0,91,0.00,,,0.00,VWS V14.01,2013-09-10 09:52:00,
2013-09-10 05:54:00,76.7,74.0,29.58,ENE,58,0.0,0.0,91,0.00,,,0.00,VWS V14.01,2013-09-10 09:54:00,
2013-09-10 05:56:00,76.6,73.9,29.58,ENE,58,0.0,0.0,91,0.00,,,0.00,VWS V14.01,2013-09-10 09:56:00,
2013-09-10 05:58:00,76.7,73.9,29.58,ENE,58,0.0,0.0,91,0.00,,,0.00,VWS V14.01,2013-09-10 09:58:00,
2013-09-10 10:34:00,84.6,74.5,29.66,ENE,58,0.0,0.0,72,0.00,,,0.00,VWS V14.01,2013-09-10 14:34:00,
2013-09-10 10:35:00,84.6,74.5,29.66,ENE,58,0.0,0.0,72,0.00,,,0.00,VWS V14.01,2013-09-10 14:35:00,
2013-09-10 10:36:00,84.8,75.2,29.67,ENE,58,0.0,0.0,73,0.00,,,0.00,VWS V14.01,2013-09-10 14:36:00,
2013-09-10 10:38:00,84.8,74.4,29.67,ENE,58,0.0,0.0,71,0.00,,,0.00,VWS V14.01,2013-09-10 14:38:00,
2013-09-10 10:40:00,84.8,74.8,29.66,ENE,58,0.0,0.0,72,0.00,,,0.00,VWS V14.01,2013-09-10 14:40:00,
2013-09-10 10:42:00,85.0,75.5,29.66,ENE,58,0.0,0.0,73,0.00,,,0.00,VWS V14.01,2013-09-10 14:42:00,
2013-09-10 10:44:00,84.9,75.2,29.66,ENE,58,0.0,0.0,73,0.00,,,0.00,VWS V14.01,2013-09-10 14:44:00,
2013-09-10 10:45:00,84.9,75.3,29.66,ENE,58,0.0,0.0,73,0.00,,,0.00,VWS V14.01,2013-09-10 14:45:00,
2013-09-10 10:46:00,84.9,75.6,29.66,ENE,58,0.0,0.0,74,0.00,,,0.00,VWS V14.01,2013-09-10 14:46:00,
2013-09-10 10:48:00,84.9,74.7,29.67,ENE,58,0.0,0.0,72,0.00,,,0.00,VWS V14.01,2013-09-10 14:48:00,
2013-09-10 10:50:00,85.0,75.0,29.66,ENE,58,0.0,0.0,72,0.00,,,0.00,VWS V14.01,2013-09-10 14:50:00,
2013-09-10 10:52:00,85.1,74.3,29.66,ENE,58,0.0,0.0,70,0.00,,,0.00,VWS V14.01,2013-09-10 14:52:00,
2013-09-10 10:54:00,85.1,73.6,29.66,ENE,58,0.0,0.0,68,0.00,,,0.00,VWS V14.01,2013-09-10 14:54:00,
2013-09-10 10:55:00,85.2,74.0,29.66,ENE,58,0.0,0.0,69,0.00,,,0.00,VWS V14.01,2013-09-10 14:55:00,
2013-09-10 10:56:00,85.3,74.7,29.66,ENE,58,0.0,0.0,71,0.00,,,0.00,VWS V14.01,2013-09-10 14:56:00,
2013-09-10 10:58:00,85.5,74.6,29.67,ENE,58,0.0,0.0,70,0.00,,,0.00,VWS V14.01,2013-09-10 14:58:00,
2013-09-10 11:00:00,85.5,72.8,29.66,ENE,58,0.0,0.0,66,0.00,,,0.00,VWS V14.01,2013-09-10 15:00:00,
2013-09-10 11:02:00,85.7,74.1,29.66,ENE,58,0.0,0.0,68,0.00,,,0.00,VWS V14.01,2013-09-10 15:02:00,
2013-09-10 11:04:00,85.5,73.5,29.67,ENE,58,0.0,0.0,68,0.00,,,0.00,VWS V14.01,2013-09-10 15:04:00,
2013-09-10 11:05:00,85.5,73.5,29.66,ENE,58,0.0,0.0,68,0.00,,,0.00,VWS V14.01,2013-09-10 15:05:00,
2013-09-10 11:06:00,85.6,74.1,29.67,ENE,58,0.0,0.0,68,0.00,,,0.00,VWS V14.01,2013-09-10 15:06:00,
2013-09-10 11:08:00,85.8,74.6,29.67,ENE,58,0.0,0.0,69,0.00,,,0.00,VWS V14.01,2013-09-10 15:08:00,
2013-09-10 11:10:00,85.9,74.4,29.66,ENE,58,0.0,0.0,69,0.00,,,0.00,VWS V14.01,2013-09-10 15:10:00,
2013-09-10 11:12:00,86.0,74.8,29.67,ENE,58,0.0,0.0,69,0.00,,,0.00,VWS V14.01,2013-09-10 15:12:00,
2013-09-10 11:14:00,86.1,75.1,29.67,ENE,58,0.0,0.0,70,0.00,,,0.00,VWS V14.01,2013-09-10 15:14:00,
2013-09-10 11:15:00,85.9,74.4,29.66,ENE,58,0.0,0.0,69,0.00,,,0.00,VWS V14.01,2013-09-10 15:15:00,
2013-09-10 11:16:00,86.2,75.1,29.67,ENE,58,0.0,0.0,70,0.00,,,0.00,VWS V14.01,2013-09-10 15:16:00,
2013-09-10 11:18:00,86.3,75.2,29.67,ENE,58,0.0,0.0,70,0.00,,,0.00,VWS V14.01,2013-09-10 15:18:00,
2013-09-10 11:20:00,86.2,73.7,29.66,ENE,58,0.0,0.0,66,0.00,,,0.00,VWS V14.01,2013-09-10 15:20:00,
2013-09-10 11:22:00,86.4,74.0,29.67,ENE,58,0.0,3.0,67,0.00,,,0.00,VWS V14.01,2013-09-10 15:22:00,
2013-09-10 11:24:00,86.5,73.9,29.67,NE,39,0.0,2.8,66,0.00,,,0.00,VWS V14.01,2013-09-10 15:24:00,
2013-09-10 11:25:00,86.4,73.9,29.66,NE,39,0.0,0.0,66,0.00,,,0.00,VWS V14.01,2013-09-10 15:25:00,
2013-09-10 11:26:00,86.5,73.9,29.67,NE,39,0.0,0.0,66,0.00,,,0.00,VWS V14.01,2013-09-10 15:26:00,
2013-09-10 11:28:00,86.4,74.0,29.67,NE,39,0.0,0.0,67,0.00,,,0.00,VWS V14.01,2013-09-10 15:28:00,
2013-09-10 11:30:00,86.6,74.1,29.66,NE,39,0.0,0.0,66,0.00,,,0.00,VWS V14.01,2013-09-10 15:30:00,
2013-09-10 11:32:00,86.5,73.9,29.67,NE,39,0.0,0.0,66,0.00,,,0.00,VWS V14.01,2013-09-10 15:32:00,
2013-09-10 11:34:00,86.5,73.7,29.67,SE,129,2.9,2.9,66,0.00,,,0.00,VWS V14.01,2013-09-10 15:34:00,
2013-09-10 11:35:00,86.6,72.9,29.66,East,83,0.0,3.1,64,0.00,,,0.00,VWS V14.01,2013-09-10 15:35:00,
2013-09-10 11:36:00,86.6,73.3,29.67,East,83,0.0,0.0,65,0.00,,,0.00,VWS V14.01,2013-09-10 15:36:00,
2013-09-10 11:38:00,86.4,73.7,29.67,East,83,0.0,0.0,66,0.00,,,0.00,VWS V14.01,2013-09-10 15:38:00,
2013-09-10 11:40:00,86.5,73.4,29.66,East,83,0.0,0.0,65,0.00,,,0.00,VWS V14.01,2013-09-10 15:40:00,
2013-09-10 11:42:00,86.4,74.1,29.67,East,83,0.0,0.0,67,0.00,,,0.00,VWS V14.01,2013-09-10 15:42:00,
2013-09-10 11:44:00,86.5,73.6,29.67,ENE,65,0.0,2.8,66,0.00,,,0.00,VWS V14.01,2013-09-10 15:44:00,
2013-09-10 11:45:00,86.5,73.8,29.66,ENE,65,0.0,2.8,66,0.00,,,0.00,VWS V14.01,2013-09-10 15:45:00,
2013-09-10 11:46:00,86.7,73.8,29.66,ENE,65,0.0,0.0,66,0.00,,,0.00,VWS V14.01,2013-09-10 15:46:00,
2013-09-10 11:48:00,86.7,73.3,29.66,ENE,65,0.0,0.0,64,0.00,,,0.00,VWS V14.01,2013-09-10 15:48:00,
2013-09-10 11:50:00,86.7,73.0,29.66,ENE,65,0.0,2.1,64,0.00,,,0.00,VWS V14.01,2013-09-10 15:50:00,
2013-09-10 11:52:00,86.7,73.3,29.66,ESE,121,0.0,0.0,64,0.00,,,0.00,VWS V14.01,2013-09-10 15:52:00,
2013-09-10 11:54:00,86.8,73.3,29.66,NE,49,0.0,0.0,64,0.00,,,0.00,VWS V14.01,2013-09-10 15:54:00,
2013-09-10 11:55:00,86.7,72.5,29.66,NE,49,0.0,0.0,63,0.00,,,0.00,VWS V14.01,2013-09-10 15:55:00,
2013-09-10 11:56:00,86.8,72.8,29.66,NE,49,0.0,0.0,63,0.00,,,0.00,VWS V14.01,2013-09-10 15:56:00,
2013-09-10 11:58:00,86.8,72.6,29.66,NE,49,0.0,0.0,63,0.00,,,0.00,VWS V14.01,2013-09-10 15:58:00,
2013-09-10 12:00:00,86.7,73.3,29.66,NE,49,0.0,0.0,65,0.00,,,0.00,VWS V14.01,2013-09-10 16:00:00,
2013-09-10 12:02:00,86.9,73.4,29.66,NE,49,0.0,0.0,64,0.00,,,0.00,VWS V14.01,2013-09-10 16:02:00,
2013-09-10 12:04:00,87.0,72.9,29.66,NE,49,0.0,0.0,63,0.00,,,0.00,VWS V14.01,2013-09-10 16:04:00,
2013-09-10 12:05:00,87.0,73.2,29.66,NE,49,0.0,0.0,64,0.00,,,0.00,VWS V14.01,2013-09-10 16:05:00,
2013-09-10 12:06:00,87.1,73.4,29.66,NE,49,0.0,0.0,64,0.00,,,0.00,VWS V14.01,2013-09-10 16:06:00,
2013-09-10 12:08:00,87.1,73.4,29.66,NE,49,0.0,0.0,64,0.00,,,0.00,VWS V14.01,2013-09-10 16:08:00,
2013-09-10 12:10:00,87.0,73.3,29.66,NE,49,0.0,0.0,64,0.00,,,0.00,VWS V14.01,2013-09-10 16:10:00,
2013-09-10 12:12:00,87.1,73.3,29.66,NE,49,2.7,2.7,64,0.00,,,0.00,VWS V14.01,2013-09-10 16:12:00,
2013-09-10 12:14:00,87.1,72.7,29.66,NE,49,0.0,2.4,62,0.00,,,0.00,VWS V14.01,2013-09-10 16:14:00,
2013-09-10 12:15:00,87.1,72.4,29.66,NE,49,0.0,2.4,62,0.00,,,0.00,VWS V14.01,2013-09-10 16:15:00,
2013-09-10 12:16:00,87.2,73.4,29.66,NE,49,0.0,0.0,64,0.00,,,0.00,VWS V14.01,2013-09-10 16:16:00,
2013-09-10 12:18:00,87.2,73.0,29.66,NE,49,0.0,0.0,63,0.00,,,0.00,VWS V14.01,2013-09-10 16:18:00,
2013-09-10 12:20:00,87.2,73.3,29.66,NE,49,0.0,0.0,63,0.00,,,0.00,VWS V14.01,2013-09-10 16:20:00,
2013-09-10 12:22:00,87.2,73.0,29.66,NE,49,0.0,0.0,63,0.00,,,0.00,VWS V14.01,2013-09-10 16:22:00,
2013-09-10 12:24:00,87.1,73.5,29.66,NE,49,0.0,0.0,64,0.00,,,0.00,VWS V14.01,2013-09-10 16:24:00,
2013-09-10 12:25:00,87.1,73.7,29.66,NE,49,0.0,0.0,65,0.00,,,0.00,VWS V14.01,2013-09-10 16:25:00,
2013-09-10 12:26:00,87.2,74.1,29.66,NE,49,0.0,0.0,65,0.00,,,0.00,VWS V14.01,2013-09-10 16:26:00,
2013-09-10 12:28:00,87.0,72.5,29.66,NE,49,0.0,0.0,62,0.00,,,0.00,VWS V14.01,2013-09-10 16:28:00,
2013-09-10 12:30:00,86.9,73.2,29.66,NE,49,0.0,0.0,64,0.00,,,0.00,VWS V14.01,2013-09-10 16:30:00,
2013-09-10 12:32:00,87.2,74.5,29.65,NE,49,0.0,0.0,66,0.00,,,0.00,VWS V14.01,2013-09-10 16:32:00,
2013-09-10 12:34:00,87.1,72.9,29.65,NE,49,0.0,0.0,63,0.00,,,0.00,VWS V14.01,2013-09-10 16:34:00,
2013-09-10 12:35:00,87.1,72.4,29.65,NE,49,0.0,0.0,62,0.00,,,0.00,VWS V14.01,2013-09-10 16:35:00,
2013-09-10 12:36:00,87.3,73.2,29.65,NE,49,0.0,0.0,63,0.00,,,0.00,VWS V14.01,2013-09-10 16:36:00,
2013-09-10 12:38:00,87.4,73.1,29.65,NE,49,0.0,0.0,63,0.00,,,0.00,VWS V14.01,2013-09-10 16:38:00,
2013-09-10 12:40:00,87.3,72.8,29.65,ENE,76,0.0,5.7,62,0.00,,,0.00,VWS V14.01,2013-09-10 16:40:00,
2013-09-10 12:42:00,87.5,72.7,29.65,ENE,76,0.0,0.0,62,0.00,,,0.00,VWS V14.01,2013-09-10 16:42:00,
2013-09-10 12:44:00,87.5,72.8,29.65,ENE,76,0.0,0.0,62,0.00,,,0.00,VWS V14.01,2013-09-10 16:44:00,
2013-09-10 12:45:00,87.6,72.7,29.65,ENE,76,0.0,0.0,61,0.00,,,0.00,VWS V14.01,2013-09-10 16:45:00,
2013-09-10 12:46:00,87.6,72.8,29.65,ENE,76,0.0,0.0,62,0.00,,,0.00,VWS V14.01,2013-09-10 16:46:00,
2013-09-10 12:48:00,87.6,73.0,29.65,NE,48,0.0,2.2,62,0.00,,,0.00,VWS V14.01,2013-09-10 16:48:00,
2013-09-10 12:50:00,87.7,72.2,29.65,NE,48,0.0,0.0,60,0.00,,,0.00,VWS V14.01,2013-09-10 16:50:00,
2013-09-10 12:52:00,88.0,72.8,29.65,NE,48,0.0,0.0,61,0.00,,,0.00,VWS V14.01,2013-09-10 16:52:00,
2013-09-10 12:54:00,88.0,73.0,29.65,NE,48,0.0,3.0,61,0.00,,,0.00,VWS V14.01,2013-09-10 16:54:00,
2013-09-10 12:55:00,88.0,73.3,29.65,NE,48,0.0,0.0,62,0.00,,,0.00,VWS V14.01,2013-09-10 16:55:00,
2013-09-10 12:56:00,88.1,73.9,29.65,NE,48,0.0,0.0,63,0.00,,,0.00,VWS V14.01,2013-09-10 16:56:00,
2013-09-10 12:58:00,88.2,73.2,29.65,NE,48,0.0,0.0,61,0.00,,,0.00,VWS V14.01,2013-09-10 16:58:00,
2013-09-10 13:00:00,88.3,73.4,29.65,NE,48,0.0,0.0,62,0.00,,,0.00,VWS V14.01,2013-09-10 17:00:00,
2013-09-10 13:02:00,88.3,73.6,29.65,NE,44,0.0,2.2,62,0.00,,,0.00,VWS V14.01,2013-09-10 17:02:00,
2013-09-10 13:04:00,88.4,72.5,29.65,NE,44,0.0,0.0,59,0.00,,,0.00,VWS V14.01,2013-09-10 17:04:00,
2013-09-10 13:05:00,88.4,72.8,29.65,NE,44,0.0,0.0,60,0.00,,,0.00,VWS V14.01,2013-09-10 17:05:00,
2013-09-10 13:06:00,88.2,72.9,29.65,NE,44,0.0,0.0,61,0.00,,,0.00,VWS V14.01,2013-09-10 17:06:00,
2013-09-10 13:08:00,88.2,73.1,29.65,NE,44,0.0,0.0,61,0.00,,,0.00,VWS V14.01,2013-09-10 17:08:00,
2013-09-10 13:10:00,88.2,72.0,29.65,East,90,0.0,5.0,59,0.00,,,0.00,VWS V14.01,2013-09-10 17:10:00,
2013-09-10 13:12:00,88.1,73.1,29.65,East,90,0.0,0.0,61,0.00,,,0.00,VWS V14.01,2013-09-10 17:12:00,
2013-09-10 13:14:00,88.3,73.6,29.64,East,90,0.0,2.9,62,0.00,,,0.00,VWS V14.01,2013-09-10 17:14:00,
2013-09-10 13:15:00,88.3,73.1,29.64,East,90,0.0,2.9,61,0.00,,,0.00,VWS V14.01,2013-09-10 17:15:00,
2013-09-10 13:16:00,88.5,73.1,29.64,East,90,0.0,0.0,60,0.00,,,0.00,VWS V14.01,2013-09-10 17:16:00,
2013-09-10 13:18:00,88.6,73.6,29.65,East,90,0.0,0.0,61,0.00,,,0.00,VWS V14.01,2013-09-10 17:18:00,
2013-09-10 13:20:00,88.8,73.4,29.65,East,90,0.0,0.0,61,0.00,,,0.00,VWS V14.01,2013-09-10 17:20:00,
2013-09-10 13:22:00,88.9,72.9,29.65,East,90,0.0,0.0,59,0.00,,,0.00,VWS V14.01,2013-09-10 17:22:00,
2013-09-10 13:24:00,89.0,73.3,29.65,East,90,0.0,0.0,60,0.00,,,0.00,VWS V14.01,2013-09-10 17:24:00,
2013-09-10 13:25:00,88.9,74.1,29.64,East,90,0.0,0.0,62,0.00,,,0.00,VWS V14.01,2013-09-10 17:25:00,
2013-09-10 13:26:00,88.9,74.4,29.65,East,90,0.0,0.0,62,0.00,,,0.00,VWS V14.01,2013-09-10 17:26:00,
2013-09-10 13:28:00,89.1,73.4,29.65,East,90,0.0,0.0,60,0.00,,,0.00,VWS V14.01,2013-09-10 17:28:00,
2013-09-10 13:30:00,89.1,73.1,29.65,East,90,0.0,0.0,59,0.00,,,0.00,VWS V14.01,2013-09-10 17:30:00,
2013-09-10 13:32:00,89.1,74.2,29.65,East,90,0.0,0.0,62,0.00,,,0.00,VWS V14.01,2013-09-10 17:32:00,
2013-09-10 13:34:00,89.3,72.4,29.65,East,90,0.0,0.0,58,0.00,,,0.00,VWS V14.01,2013-09-10 17:34:00,
2013-09-10 13:35:00,89.3,72.7,29.65,East,90,0.0,0.0,58,0.00,,,0.00,VWS V14.01,2013-09-10 17:35:00,
2013-09-10 13:36:00,89.3,73.2,29.64,East,90,0.0,0.0,59,0.00,,,0.00,VWS V14.01,2013-09-10 17:36:00,
2013-09-10 13:38:00,89.3,74.1,29.64,SE,131,4.1,4.1,61,0.00,,,0.00,VWS V14.01,2013-09-10 17:38:00,
2013-09-10 13:40:00,89.3,72.9,29.64,ENE,60,0.0,2.5,59,0.00,,,0.00,VWS V14.01,2013-09-10 17:40:00,
2013-09-10 13:42:00,89.3,72.7,29.64,ENE,60,0.0,0.0,58,0.00,,,0.00,VWS V14.01,2013-09-10 17:42:00,
2013-09-10 13:44:00,89.1,73.7,29.64,East,84,3.5,5.3,61,0.00,,,0.00,VWS V14.01,2013-09-10 17:44:00,
2013-09-10 13:45:00,89.2,72.4,29.64,ENE,73,0.0,5.3,58,0.00,,,0.00,VWS V14.01,2013-09-10 17:45:00,
2013-09-10 13:46:00,89.1,73.1,29.64,ENE,73,0.0,0.0,59,0.00,,,0.00,VWS V14.01,2013-09-10 17:46:00,
2013-09-10 13:48:00,89.1,72.1,29.64,SSE,152,0.0,4.3,57,0.00,,,0.00,VWS V14.01,2013-09-10 17:48:00,
2013-09-10 13:50:00,89.3,73.7,29.64,SSE,152,1.2,1.2,60,0.00,,,0.00,VWS V14.01,2013-09-10 17:50:00,
2013-09-10 13:52:00,89.2,73.3,29.64,SSE,152,0.0,0.0,60,0.00,,,0.00,VWS V14.01,2013-09-10 17:52:00,
2013-09-10 13:54:00,89.4,72.0,29.64,ESE,120,0.0,4.4,57,0.00,,,0.00,VWS V14.01,2013-09-10 17:54:00,
2013-09-10 13:55:00,89.4,72.1,29.64,ESE,120,0.0,0.0,57,0.00,,,0.00,VWS V14.01,2013-09-10 17:55:00,
2013-09-10 13:56:00,89.5,72.6,29.64,ESE,118,0.0,3.1,58,0.00,,,0.00,VWS V14.01,2013-09-10 17:56:00,
2013-09-10 13:58:00,89.4,71.3,29.64,ESE,118,0.0,0.0,55,0.00,,,0.00,VWS V14.01,2013-09-10 17:58:00,
2013-09-10 14:00:00,89.4,70.6,29.64,ESE,118,0.0,2.5,54,0.00,,,0.00,VWS V14.01,2013-09-10 18:00:00,
2013-09-10 14:02:00,89.4,71.2,29.64,ENE,72,0.0,0.0,55,0.00,,,0.00,VWS V14.01,2013-09-10 18:02:00,
2013-09-10 14:04:00,89.4,71.3,29.64,ENE,72,0.0,0.0,55,0.00,,,0.00,VWS V14.01,2013-09-10 18:04:00,
2013-09-10 14:05:00,89.4,71.6,29.64,ENE,72,0.0,0.0,56,0.00,,,0.00,VWS V14.01,2013-09-10 18:05:00,
2013-09-10 14:06:00,89.4,71.8,29.64,ENE,72,0.0,0.0,56,0.00,,,0.00,VWS V14.01,2013-09-10 18:06:00,
2013-09-10 14:08:00,89.5,73.5,29.64,ENE,72,0.0,0.0,59,0.00,,,0.00,VWS V14.01,2013-09-10 18:08:00,
2013-09-10 14:10:00,89.6,69.9,29.64,ENE,72,0.0,0.0,52,0.00,,,0.00,VWS V14.01,2013-09-10 18:10:00,
2013-09-10 14:12:00,89.6,68.9,29.64,NE,52,0.0,3.3,51,0.00,,,0.00,VWS V14.01,2013-09-10 18:12:00,
2013-09-10 14:14:00,89.6,70.7,29.64,NE,52,0.0,0.0,54,0.00,,,0.00,VWS V14.01,2013-09-10 18:14:00,
2013-09-10 14:15:00,89.6,71.6,29.64,NE,52,0.0,0.0,56,0.00,,,0.00,VWS V14.01,2013-09-10 18:15:00,
2013-09-10 14:16:00,89.7,71.0,29.64,NE,52,0.0,0.0,54,0.00,,,0.00,VWS V14.01,2013-09-10 18:16:00,
2013-09-10 14:18:00,89.6,70.7,29.64,NE,52,0.0,0.0,54,0.00,,,0.00,VWS V14.01,2013-09-10 18:18:00,
2013-09-10 14:20:00,89.7,70.6,29.64,NE,52,0.0,0.0,54,0.00,,,0.00,VWS V14.01,2013-09-10 18:20:00,
2013-09-10 14:22:00,89.6,71.2,29.63,NE,52,0.0,0.0,55,0.00,,,0.00,VWS V14.01,2013-09-10 18:22:00,
2013-09-10 14:24:00,89.6,71.6,29.63,NE,52,0.0,0.0,56,0.00,,,0.00,VWS V14.01,2013-09-10 18:24:00,
2013-09-10 14:25:00,89.7,71.6,29.63,NE,52,0.0,0.0,55,0.00,,,0.00,VWS V14.01,2013-09-10 18:25:00,
2013-09-10 14:26:00,89.7,70.7,29.63,NE,52,0.0,0.0,54,0.00,,,0.00,VWS V14.01,2013-09-10 18:26:00,
2013-09-10 14:28:00,89.7,71.8,29.63,NE,52,0.0,0.0,56,0.00,,,0.00,VWS V14.01,2013-09-10 18:28:00,
2013-09-10 14:30:00,89.8,70.8,29.63,NE,52,0.0,0.0,54,0.00,,,0.00,VWS V14.01,2013-09-10 18:30:00,
2013-09-10 14:32:00,89.8,71.3,29.63,NE,52,0.0,0.0,55,0.00,,,0.00,VWS V14.01,2013-09-10 18:32:00,
2013-09-10 14:34:00,90.0,71.6,29.63,NE,52,0.0,0.0,55,0.00,,,0.00,VWS V14.01,2013-09-10 18:34:00,
2013-09-10 14:35:00,89.9,71.8,29.63,NE,52,0.0,0.0,56,0.00,,,0.00,VWS V14.01,2013-09-10 18:35:00,
2013-09-10 14:36:00,90.0,72.4,29.63,NE,52,0.0,0.0,56,0.00,,,0.00,VWS V14.01,2013-09-10 18:36:00,
2013-09-10 14:38:00,90.1,71.3,29.63,NE,52,0.0,0.0,54,0.00,,,0.00,VWS V14.01,2013-09-10 18:38:00,
2013-09-10 14:40:00,90.1,70.9,29.63,NE,52,0.0,0.0,53,0.00,,,0.00,VWS V14.01,2013-09-10 18:40:00,
2013-09-10 14:42:00,90.1,72.0,29.63,ENE,58,0.0,3.4,56,0.00,,,0.00,VWS V14.01,2013-09-10 18:42:00,
2013-09-10 14:44:00,90.1,71.4,29.63,ENE,58,0.0,0.0,54,0.00,,,0.00,VWS V14.01,2013-09-10 18:44:00,
2013-09-10 14:45:00,90.1,71.4,29.63,ENE,58,0.0,0.0,54,0.00,,,0.00,VWS V14.01,2013-09-10 18:45:00,
2013-09-10 14:46:00,90.3,70.5,29.63,ENE,58,0.0,0.0,52,0.00,,,0.00,VWS V14.01,2013-09-10 18:46:00,
2013-09-10 14:48:00,90.2,70.2,29.63,ENE,58,0.0,0.0,52,0.00,,,0.00,VWS V14.01,2013-09-10 18:48:00,
2013-09-10 14:50:00,90.0,70.1,29.63,East,90,0.0,3.2,52,0.00,,,0.00,VWS V14.01,2013-09-10 18:50:00,
2013-09-10 14:52:00,90.0,71.2,29.63,East,90,0.0,0.0,54,0.00,,,0.00,VWS V14.01,2013-09-10 18:52:00,
2013-09-10 14:54:00,89.9,70.5,29.63,East,90,0.0,0.0,53,0.00,,,0.00,VWS V14.01,2013-09-10 18:54:00,
2013-09-10 14:55:00,89.9,71.2,29.62,East,90,0.0,0.0,54,0.00,,,0.00,VWS V14.01,2013-09-10 18:55:00,
2013-09-10 14:56:00,89.9,72.0,29.63,East,90,0.0,0.0,56,0.00,,,0.00,VWS V14.01,2013-09-10 18:56:00,
2013-09-10 14:58:00,90.0,71.8,29.63,East,90,0.0,0.0,55,0.00,,,0.00,VWS V14.01,2013-09-10 18:58:00,
2013-09-10 15:00:00,90.1,71.7,29.63,SE,132,0.0,3.5,55,0.00,,,0.00,VWS V14.01,2013-09-10 19:00:00,
2013-09-10 15:02:00,90.2,71.3,29.63,ENE,59,0.0,5.2,54,0.00,,,0.00,VWS V14.01,2013-09-10 19:02:00,
2013-09-10 15:04:00,90.2,70.8,29.63,ENE,69,0.0,2.4,53,0.00,,,0.00,VWS V14.01,2013-09-10 19:04:00,
2013-09-10 15:05:00,90.3,71.0,29.63,ENE,69,0.0,0.0,53,0.00,,,0.00,VWS V14.01,2013-09-10 19:05:00,
2013-09-10 15:06:00,90.2,72.1,29.62,ENE,69,0.0,0.0,55,0.00,,,0.00,VWS V14.01,2013-09-10 19:06:00,
2013-09-10 15:08:00,90.1,72.5,29.62,ENE,69,0.0,0.0,56,0.00,,,0.00,VWS V14.01,2013-09-10 19:08:00,
2013-09-10 15:10:00,90.0,71.0,29.63,ENE,69,0.0,0.0,54,0.00,,,0.00,VWS V14.01,2013-09-10 19:10:00,
2013-09-10 15:12:00,90.1,72.0,29.62,ENE,69,0.0,0.0,55,0.00,,,0.00,VWS V14.01,2013-09-10 19:12:00,
2013-09-10 15:14:00,90.2,71.7,29.63,ESE,103,0.0,3.2,55,0.00,,,0.00,VWS V14.01,2013-09-10 19:14:00,
2013-09-10 15:15:00,90.2,71.8,29.62,ESE,103,0.0,2.9,55,0.00,,,0.00,VWS V14.01,2013-09-10 19:15:00,
2013-09-10 15:16:00,90.1,71.5,29.62,ESE,103,0.0,0.0,54,0.00,,,0.00,VWS V14.01,2013-09-10 19:16:00,
2013-09-10 15:18:00,90.2,71.7,29.62,East,94,0.0,0.0,55,0.00,,,0.00,VWS V14.01,2013-09-10 19:18:00,
2013-09-10 15:20:00,90.3,71.7,29.62,ENE,66,0.0,2.8,54,0.00,,,0.00,VWS V14.01,2013-09-10 19:20:00,
2013-09-10 15:22:00,90.2,73.3,29.62,ENE,66,0.0,0.0,58,0.00,,,0.00,VWS V14.01,2013-09-10 19:22:00,
2013-09-10 15:24:00,90.4,72.6,29.62,ENE,66,0.0,0.0,56,0.00,,,0.00,VWS V14.01,2013-09-10 19:24:00,
2013-09-10 15:25:00,90.3,72.3,29.62,ENE,66,0.0,0.0,56,0.00,,,0.00,VWS V14.01,2013-09-10 19:25:00,
2013-09-10 15:26:00,90.4,71.7,29.62,ENE,66,0.0,0.0,54,0.00,,,0.00,VWS V14.01,2013-09-10 19:26:00,
2013-09-10 15:28:00,90.3,73.0,29.62,ENE,66,0.0,0.0,57,0.00,,,0.00,VWS V14.01,2013-09-10 19:28:00,
2013-09-10 15:30:00,90.3,73.3,29.62,East,80,0.0,0.0,58,0.00,,,0.00,VWS V14.01,2013-09-10 19:30:00,
2013-09-10 15:32:00,90.2,73.4,29.62,East,80,0.0,1.7,58,0.00,,,0.00,VWS V14.01,2013-09-10 19:32:00,
2013-09-10 15:34:00,90.4,72.5,29.62,East,80,0.0,0.0,56,0.00,,,0.00,VWS V14.01,2013-09-10 19:34:00,
2013-09-10 15:35:00,90.5,72.5,29.62,East,80,0.0,0.0,56,0.00,,,0.00,VWS V14.01,2013-09-10 19:35:00,
2013-09-10 15:36:00,90.6,72.6,29.62,East,80,0.0,0.0,56,0.00,,,0.00,VWS V14.01,2013-09-10 19:36:00,
2013-09-10 15:38:00,90.4,72.4,29.62,East,80,0.0,0.0,56,0.00,,,0.00,VWS V14.01,2013-09-10 19:38:00,
2013-09-10 15:40:00,90.6,72.1,29.62,East,80,0.0,0.0,55,0.00,,,0.00,VWS V14.01,2013-09-10 19:40:00,
2013-09-10 15:42:00,90.7,72.6,29.62,NE,34,0.0,3.3,56,0.00,,,0.00,VWS V14.01,2013-09-10 19:42:00,
2013-09-10 15:44:00,90.8,72.2,29.62,SE,128,0.0,2.9,55,0.00,,,0.00,VWS V14.01,2013-09-10 19:44:00,
2013-09-10 15:45:00,90.9,71.5,29.62,NE,39,0.0,4.3,53,0.00,,,0.00,VWS V14.01,2013-09-10 19:45:00,
2013-09-10 15:46:00,91.0,71.9,29.62,NE,39,0.0,1.2,54,0.00,,,0.00,VWS V14.01,2013-09-10 19:46:00,
2013-09-10 15:48:00,90.8,72.0,29.62,NE,39,0.0,0.0,54,0.00,,,0.00,VWS V14.01,2013-09-10 19:48:00,
2013-09-10 15:50:00,90.4,71.2,29.62,East,96,0.0,2.9,54,0.00,,,0.00,VWS V14.01,2013-09-10 19:50:00,
2013-09-10 15:52:00,90.3,72.4,29.62,East,96,0.0,0.0,56,0.00,,,0.00,VWS V14.01,2013-09-10 19:52:00,
2013-09-10 15:54:00,90.3,70.9,29.62,NE,49,2.7,4.3,53,0.00,,,0.00,VWS V14.01,2013-09-10 19:54:00,
2013-09-10 15:55:00,90.4,70.4,29.62,East,91,0.0,4.5,52,0.00,,,0.00,VWS V14.01,2013-09-10 19:55:00,
2013-09-10 15:56:00,90.3,71.8,29.62,East,91,0.0,0.0,55,0.00,,,0.00,VWS V14.01,2013-09-10 19:56:00,
2013-09-10 15:58:00,90.3,71.6,29.62,East,91,0.0,0.0,54,0.00,,,0.00,VWS V14.01,2013-09-10 19:58:00,
2013-09-10 16:00:00,90.4,71.5,29.62,East,91,0.0,0.0,54,0.00,,,0.00,VWS V14.01,2013-09-10 20:00:00,
2013-09-10 16:02:00,90.6,72.4,29.62,East,91,0.0,0.0,55,0.00,,,0.00,VWS V14.01,2013-09-10 20:02:00,
2013-09-10 16:04:00,90.7,73.0,29.61,East,91,0.0,0.0,56,0.00,,,0.00,VWS V14.01,2013-09-10 20:04:00,
2013-09-10 16:05:00,90.8,73.2,29.61,East,91,0.0,0.0,56,0.00,,,0.00,VWS V14.01,2013-09-10 20:05:00,
2013-09-10 16:06:00,91.0,72.4,29.61,East,91,0.0,0.0,55,0.00,,,0.00,VWS V14.01,2013-09-10 20:06:00,
2013-09-10 16:08:00,91.1,72.4,29.61,East,91,0.0,0.0,54,0.00,,,0.00,VWS V14.01,2013-09-10 20:08:00,
2013-09-10 16:10:00,91.1,72.6,29.61,East,91,0.0,0.0,55,0.00,,,0.00,VWS V14.01,2013-09-10 20:10:00,
2013-09-10 16:12:00,91.4,72.4,29.61,East,91,0.0,0.0,54,0.00,,,0.00,VWS V14.01,2013-09-10 20:12:00,
2013-09-10 16:14:00,91.2,72.1,29.61,East,91,0.0,2.1,54,0.00,,,0.00,VWS V14.01,2013-09-10 20:14:00,
2013-09-10 16:15:00,91.1,72.5,29.62,East,91,0.0,0.0,55,0.00,,,0.00,VWS V14.01,2013-09-10 20:15:00,
2013-09-10 16:16:00,91.2,72.1,29.62,East,91,0.0,0.0,54,0.00,,,0.00,VWS V14.01,2013-09-10 20:16:00,
2013-09-10 16:18:00,91.2,72.7,29.62,East,91,0.0,2.9,55,0.00,,,0.00,VWS V14.01,2013-09-10 20:18:00,
2013-09-10 16:20:00,91.1,72.5,29.62,ENE,60,0.0,5.8,55,0.00,,,0.00,VWS V14.01,2013-09-10 20:20:00,
2013-09-10 16:22:00,91.0,73.1,29.62,ENE,75,2.9,3.5,56,0.00,,,0.00,VWS V14.01,2013-09-10 20:22:00,
2013-09-10 16:24:00,90.7,72.9,29.62,SE,146,0.0,7.4,56,0.00,,,0.00,VWS V14.01,2013-09-10 20:24:00,
2013-09-10 16:25:00,90.8,73.2,29.62,SE,146,0.0,0.0,56,0.00,,,0.00,VWS V14.01,2013-09-10 20:25:00,
2013-09-10 16:26:00,90.7,73.7,29.62,SE,146,0.0,0.0,58,0.00,,,0.00,VWS V14.01,2013-09-10 20:26:00,
2013-09-10 16:28:00,90.7,73.4,29.62,East,101,0.0,0.0,57,0.00,,,0.00,VWS V14.01,2013-09-10 20:28:00,
2013-09-10 16:30:00,90.6,74.2,29.62,East,101,2.9,2.9,59,0.00,,,0.00,VWS V14.01,2013-09-10 20:30:00,
2013-09-10 16:32:00,90.8,73.6,29.62,East,101,0.0,0.0,57,0.00,,,0.00,VWS V14.01,2013-09-10 20:32:00,
2013-09-10 16:34:00,90.9,73.6,29.62,East,101,0.0,0.0,57,0.00,,,0.00,VWS V14.01,2013-09-10 20:34:00,
2013-09-10 16:35:00,90.9,73.6,29.62,East,101,0.0,0.0,57,0.00,,,0.00,VWS V14.01,2013-09-10 20:35:00,
2013-09-10 16:36:00,90.8,72.4,29.62,East,101,0.0,0.0,55,0.00,,,0.00,VWS V14.01,2013-09-10 20:36:00,
2013-09-10 16:38:00,90.9,72.9,29.62,ENE,68,0.0,0.0,56,0.00,,,0.00,VWS V14.01,2013-09-10 20:38:00,
2013-09-10 16:40:00,90.9,73.7,29.62,ENE,68,0.0,0.0,57,0.00,,,0.00,VWS V14.01,2013-09-10 20:40:00,
2013-09-10 16:42:00,90.8,72.8,29.62,East,80,0.0,2.9,56,0.00,,,0.00,VWS V14.01,2013-09-10 20:42:00,
2013-09-10 16:44:00,91.0,74.3,29.62,East,80,0.0,0.0,58,0.00,,,0.00,VWS V14.01,2013-09-10 20:44:00,
2013-09-10 16:45:00,90.7,74.3,29.62,East,80,0.0,0.0,59,0.00,,,0.00,VWS V14.01,2013-09-10 20:45:00,
2013-09-10 16:46:00,90.7,73.8,29.62,East,80,0.0,0.0,58,0.00,,,0.00,VWS V14.01,2013-09-10 20:46:00,
2013-09-10 16:48:00,91.0,73.1,29.62,East,80,0.0,0.0,56,0.00,,,0.00,VWS V14.01,2013-09-10 20:48:00,
2013-09-10 16:50:00,90.8,73.0,29.62,East,80,0.0,0.0,56,0.00,,,0.00,VWS V14.01,2013-09-10 20:50:00,
2013-09-10 16:52:00,90.7,73.5,29.62,East,80,0.0,0.0,57,0.00,,,0.00,VWS V14.01,2013-09-10 20:52:00,
2013-09-10 16:54:00,90.8,74.1,29.62,ENE,58,0.0,0.0,58,0.00,,,0.00,VWS V14.01,2013-09-10 20:54:00,
2013-09-10 16:55:00,90.7,74.1,29.62,ENE,58,0.0,0.0,58,0.00,,,0.00,VWS V14.01,2013-09-10 20:55:00,
2013-09-10 16:56:00,90.6,74.3,29.62,ENE,58,0.0,0.0,59,0.00,,,0.00,VWS V14.01,2013-09-10 20:56:00,
2013-09-10 16:58:00,90.7,73.8,29.62,ENE,58,0.0,0.0,58,0.00,,,0.00,VWS V14.01,2013-09-10 20:58:00,
2013-09-10 17:00:00,90.7,73.7,29.62,ENE,58,0.0,0.0,58,0.00,,,0.00,VWS V14.01,2013-09-10 21:00:00,
2013-09-10 17:02:00,90.4,73.2,29.62,ESE,122,0.0,0.0,57,0.00,,,0.00,VWS V14.01,2013-09-10 21:02:00,
2013-09-10 17:04:00,90.5,73.3,29.61,East,100,0.0,0.0,57,0.00,,,0.00,VWS V14.01,2013-09-10 21:04:00,
2013-09-10 17:05:00,90.4,73.4,29.61,East,100,0.0,0.0,58,0.00,,,0.00,VWS V14.01,2013-09-10 21:05:00,
2013-09-10 17:06:00,90.2,73.0,29.61,East,100,0.0,0.0,57,0.00,,,0.00,VWS V14.01,2013-09-10 21:06:00,
2013-09-10 17:08:00,90.2,73.9,29.61,East,100,0.0,0.0,59,0.00,,,0.00,VWS V14.01,2013-09-10 21:08:00,
2013-09-10 17:10:00,90.2,73.4,29.61,East,100,0.0,0.0,58,0.00,,,0.00,VWS V14.01,2013-09-10 21:10:00,
2013-09-10 17:12:00,90.2,73.9,29.61,East,100,0.0,0.0,59,0.00,,,0.00,VWS V14.01,2013-09-10 21:12:00,
2013-09-10 17:14:00,90.1,73.8,29.61,East,100,0.0,0.0,59,0.00,,,0.00,VWS V14.01,2013-09-10 21:14:00,
2013-09-10 17:15:00,90.2,73.8,29.61,ENE,65,0.0,3.2,59,0.00,,,0.00,VWS V14.01,2013-09-10 21:15:00,
2013-09-10 17:16:00,89.9,74.0,29.61,ENE,65,0.0,0.0,60,0.00,,,0.00,VWS V14.01,2013-09-10 21:16:00,
2013-09-10 17:18:00,89.8,74.4,29.61,ESE,114,3.5,3.5,61,0.00,,,0.00,VWS V14.01,2013-09-10 21:18:00,
2013-09-10 17:20:00,89.8,74.8,29.61,East,91,2.7,2.8,62,0.00,,,0.00,VWS V14.01,2013-09-10 21:20:00,
2013-09-10 17:22:00,89.7,74.4,29.61,East,91,0.0,2.2,61,0.00,,,0.00,VWS V14.01,2013-09-10 21:22:00,
2013-09-10 17:24:00,89.6,74.6,29.61,East,91,0.0,0.0,61,0.00,,,0.00,VWS V14.01,2013-09-10 21:24:00,
2013-09-10 17:25:00,89.6,74.7,29.61,East,91,0.0,0.0,62,0.00,,,0.00,VWS V14.01,2013-09-10 21:25:00,
2013-09-10 17:26:00,89.6,74.7,29.61,East,91,0.0,0.0,62,0.00,,,0.00,VWS V14.01,2013-09-10 21:26:00,
2013-09-10 17:28:00,89.4,74.8,29.61,East,91,0.0,0.0,62,0.00,,,0.00,VWS V14.01,2013-09-10 21:28:00,
2013-09-10 17:30:00,89.6,74.5,29.61,East,90,0.0,0.0,61,0.00,,,0.00,VWS V14.01,2013-09-10 21:30:00,
2013-09-10 17:32:00,89.5,74.7,29.61,East,90,0.0,0.0,62,0.00,,,0.00,VWS V14.01,2013-09-10 21:32:00,
2013-09-10 17:34:00,89.4,74.6,29.61,East,90,0.0,0.0,62,0.00,,,0.00,VWS V14.01,2013-09-10 21:34:00,
2013-09-10 17:35:00,89.4,74.6,29.61,East,96,0.0,2.8,62,0.00,,,0.00,VWS V14.01,2013-09-10 21:35:00,
2013-09-10 17:36:00,89.6,75.2,29.61,East,96,0.0,0.0,63,0.00,,,0.00,VWS V14.01,2013-09-10 21:36:00,
2013-09-10 17:38:00,89.3,74.9,29.61,East,96,0.0,0.0,63,0.00,,,0.00,VWS V14.01,2013-09-10 21:38:00,
2013-09-10 17:40:00,89.4,75.1,29.61,East,96,0.0,0.0,63,0.00,,,0.00,VWS V14.01,2013-09-10 21:40:00,
2013-09-10 17:42:00,89.4,74.9,29.61,East,96,0.0,0.0,62,0.00,,,0.00,VWS V14.01,2013-09-10 21:42:00,
2013-09-10 17:44:00,89.4,75.5,29.61,East,96,0.0,2.4,64,0.00,,,0.00,VWS V14.01,2013-09-10 21:44:00,
2013-09-10 17:45:00,89.4,75.2,29.61,NE,41,0.0,2.4,63,0.00,,,0.00,VWS V14.01,2013-09-10 21:45:00,
2013-09-10 17:46:00,89.5,75.8,29.61,NE,41,0.0,0.0,64,0.00,,,0.00,VWS V14.01,2013-09-10 21:46:00,
2013-09-10 17:48:00,89.3,75.1,29.61,NE,41,0.0,0.0,63,0.00,,,0.00,VWS V14.01,2013-09-10 21:48:00,
2013-09-10 17:50:00,89.3,75.4,29.61,NE,41,0.0,0.0,64,0.00,,,0.00,VWS V14.01,2013-09-10 21:50:00,
2013-09-10 17:52:00,89.3,75.7,29.61,East,89,0.0,4.8,64,0.00,,,0.00,VWS V14.01,2013-09-10 21:52:00,
2013-09-10 17:54:00,89.2,75.5,29.61,East,101,0.0,5.2,64,0.00,,,0.00,VWS V14.01,2013-09-10 21:54:00,
2013-09-10 17:55:00,89.1,75.8,29.61,East,94,3.5,5.2,65,0.00,,,0.00,VWS V14.01,2013-09-10 21:55:00,
2013-09-10 17:56:00,89.0,75.5,29.61,East,82,0.0,3.5,64,0.00,,,0.00,VWS V14.01,2013-09-10 21:56:00,
2013-09-10 17:58:00,88.7,75.4,29.61,East,82,0.0,0.0,65,0.00,,,0.00,VWS V14.01,2013-09-10 21:58:00,
2013-09-10 18:00:00,88.5,75.9,29.61,East,82,0.0,0.0,66,0.00,,,0.00,VWS V14.01,2013-09-10 22:00:00,
2013-09-10 18:02:00,88.2,76.3,29.61,East,98,0.0,5.1,68,0.00,,,0.00,VWS V14.01,2013-09-10 22:02:00,
2013-09-10 18:04:00,88.0,76.2,29.61,East,98,0.0,0.0,68,0.00,,,0.00,VWS V14.01,2013-09-10 22:04:00,
2013-09-10 18:05:00,87.9,76.2,29.61,East,98,0.0,0.0,68,0.00,,,0.00,VWS V14.01,2013-09-10 22:05:00,
2013-09-10 18:06:00,88.0,76.2,29.61,East,98,0.0,0.0,68,0.00,,,0.00,VWS V14.01,2013-09-10 22:06:00,
2013-09-10 18:08:00,88.0,76.4,29.61,East,98,0.0,0.0,69,0.00,,,0.00,VWS V14.01,2013-09-10 22:08:00,
2013-09-10 18:10:00,87.9,76.4,29.61,ESE,117,0.0,4.4,69,0.00,,,0.00,VWS V14.01,2013-09-10 22:10:00,
2013-09-10 18:12:00,87.9,76.8,29.61,ESE,117,0.0,0.0,70,0.00,,,0.00,VWS V14.01,2013-09-10 22:12:00,
2013-09-10 18:14:00,87.9,76.9,29.61,ESE,117,0.0,0.0,70,0.00,,,0.00,VWS V14.01,2013-09-10 22:14:00,
2013-09-10 18:15:00,87.6,76.7,29.61,ESE,117,0.0,1.2,70,0.00,,,0.00,VWS V14.01,2013-09-10 22:15:00,
2013-09-10 18:16:00,87.8,76.9,29.61,ESE,117,0.0,1.2,70,0.00,,,0.00,VWS V14.01,2013-09-10 22:16:00,
2013-09-10 18:18:00,87.6,76.9,29.61,ESE,117,0.0,0.0,71,0.00,,,0.00,VWS V14.01,2013-09-10 22:18:00,
2013-09-10 18:20:00,87.6,77.1,29.61,ESE,117,0.0,0.0,71,0.00,,,0.00,VWS V14.01,2013-09-10 22:20:00,
2013-09-10 18:22:00,87.5,77.2,29.61,ESE,117,0.0,0.0,72,0.00,,,0.00,VWS V14.01,2013-09-10 22:22:00,
2013-09-10 18:24:00,87.6,77.5,29.61,ESE,117,0.0,0.0,72,0.00,,,0.00,VWS V14.01,2013-09-10 22:24:00,
2013-09-10 18:25:00,87.5,77.4,29.61,ENE,68,3.2,3.2,72,0.00,,,0.00,VWS V14.01,2013-09-10 22:25:00,
2013-09-10 18:26:00,87.5,77.3,29.61,ENE,68,0.0,3.2,72,0.00,,,0.00,VWS V14.01,2013-09-10 22:26:00,
2013-09-10 18:28:00,87.5,77.4,29.61,ENE,68,0.0,0.0,72,0.00,,,0.00,VWS V14.01,2013-09-10 22:28:00,
2013-09-10 18:30:00,87.5,77.6,29.61,ENE,68,0.0,0.0,73,0.00,,,0.00,VWS V14.01,2013-09-10 22:30:00,
2013-09-10 18:32:00,87.3,78.2,29.61,West,260,0.0,4.3,74,0.00,,,0.00,VWS V14.01,2013-09-10 22:32:00,
2013-09-10 18:34:00,87.1,78.4,29.61,West,260,0.0,0.0,75,0.00,,,0.00,VWS V14.01,2013-09-10 22:34:00,
2013-09-10 18:35:00,86.8,77.3,29.61,East,80,0.0,5.2,74,0.00,,,0.00,VWS V14.01,2013-09-10 22:35:00,
2013-09-10 18:36:00,86.5,77.6,29.61,East,80,0.0,3.1,75,0.00,,,0.00,VWS V14.01,2013-09-10 22:36:00,
2013-09-10 18:38:00,85.9,77.5,29.61,East,80,0.0,0.0,76,0.00,,,0.00,VWS V14.01,2013-09-10 22:38:00,
2013-09-10 18:40:00,85.7,77.8,29.61,East,80,0.0,0.0,77,0.00,,,0.00,VWS V14.01,2013-09-10 22:40:00,
2013-09-10 18:42:00,85.2,77.6,29.61,East,80,0.0,0.0,78,0.00,,,0.00,VWS V14.01,2013-09-10 22:42:00,
2013-09-10 18:44:00,85.2,78.2,29.61,East,80,0.0,0.0,80,0.00,,,0.00,VWS V14.01,2013-09-10 22:44:00,
2013-09-10 18:45:00,84.9,78.0,29.61,East,80,0.0,0.0,80,0.00,,,0.00,VWS V14.01,2013-09-10 22:45:00,
2013-09-10 18:46:00,84.9,78.1,29.61,East,80,0.0,0.0,80,0.00,,,0.00,VWS V14.01,2013-09-10 22:46:00,
2013-09-10 18:48:00,84.8,78.0,29.61,East,80,0.0,0.0,80,0.00,,,0.00,VWS V14.01,2013-09-10 22:48:00,
2013-09-10 18:50:00,84.6,77.8,29.61,East,80,0.0,0.0,80,0.00,,,0.00,VWS V14.01,2013-09-10 22:50:00,
2013-09-10 18:52:00,84.5,78.1,29.61,East,80,0.0,0.0,81,0.01,,,0.01,VWS V14.01,2013-09-10 22:52:00,
2013-09-10 18:54:00,84.5,77.8,29.61,East,80,0.0,0.0,80,0.01,,,0.01,VWS V14.01,2013-09-10 22:54:00,
2013-09-10 18:55:00,84.2,77.6,29.61,East,80,0.0,0.0,81,0.01,,,0.01,VWS V14.01,2013-09-10 22:55:00,
2013-09-10 18:56:00,84.3,77.8,29.61,East,80,0.0,0.0,81,0.01,,,0.01,VWS V14.01,2013-09-10 22:56:00,
2013-09-10 18:58:00,84.2,77.7,29.61,East,80,0.0,0.0,81,0.01,,,0.01,VWS V14.01,2013-09-10 22:58:00,
2013-09-10 19:00:00,84.1,77.7,29.61,East,80,0.0,0.0,81,0.01,,,0.01,VWS V14.01,2013-09-10 23:00:00,
2013-09-10 19:02:00,83.9,77.5,29.61,East,80,0.0,0.0,81,0.01,,,0.01,VWS V14.01,2013-09-10 23:02:00,
2013-09-10 19:04:00,83.8,77.3,29.61,ESE,120,0.0,2.6,81,0.01,,,0.01,VWS V14.01,2013-09-10 23:04:00,
2013-09-10 19:05:00,83.7,77.4,29.61,ESE,120,0.0,0.0,81,0.01,,,0.01,VWS V14.01,2013-09-10 23:05:00,
2013-09-10 19:06:00,83.6,77.2,29.61,East,91,0.0,2.8,81,0.01,,,0.01,VWS V14.01,2013-09-10 23:06:00,
2013-09-10 19:08:00,83.4,77.2,29.61,East,91,0.0,0.0,82,0.01,,,0.01,VWS V14.01,2013-09-10 23:08:00,
2013-09-10 19:10:00,83.4,77.6,29.61,East,91,0.0,0.0,83,0.01,,,0.01,VWS V14.01,2013-09-10 23:10:00,
2013-09-10 19:12:00,83.4,77.5,29.61,East,91,0.0,0.0,82,0.01,,,0.01,VWS V14.01,2013-09-10 23:12:00,
2013-09-10 19:14:00,83.4,77.7,29.61,East,91,0.0,0.0,83,0.01,,,0.01,VWS V14.01,2013-09-10 23:14:00,
2013-09-10 19:15:00,83.4,77.8,29.61,East,91,0.0,0.0,83,0.01,,,0.01,VWS V14.01,2013-09-10 23:15:00,
2013-09-10 19:16:00,83.3,77.6,29.61,East,91,0.0,0.0,83,0.01,,,0.01,VWS V14.01,2013-09-10 23:16:00,
2013-09-10 19:18:00,83.3,77.8,29.61,East,91,0.0,0.0,84,0.01,,,0.01,VWS V14.01,2013-09-10 23:18:00,
2013-09-10 19:20:00,83.4,77.9,29.61,East,91,0.0,0.0,84,0.01,,,0.01,VWS V14.01,2013-09-10 23:20:00,
2013-09-10 19:22:00,83.1,77.8,29.61,East,91,0.0,0.0,84,0.01,,,0.01,VWS V14.01,2013-09-10 23:22:00,
2013-09-10 19:24:00,83.4,78.0,29.61,East,91,0.0,0.0,84,0.01,,,0.01,VWS V14.01,2013-09-10 23:24:00,
2013-09-10 19:25:00,83.1,77.7,29.61,East,91,0.0,0.0,84,0.01,,,0.01,VWS V14.01,2013-09-10 23:25:00,
2013-09-10 19:26:00,83.1,77.6,29.61,East,91,0.0,0.0,84,0.01,,,0.01,VWS V14.01,2013-09-10 23:26:00,
2013-09-10 19:28:00,83.2,77.6,29.61,East,91,0.0,0.0,83,0.01,,,0.01,VWS V14.01,2013-09-10 23:28:00,
2013-09-10 19:30:00,83.1,77.4,29.61,East,91,0.0,0.0,83,0.01,,,0.01,VWS V14.01,2013-09-10 23:30:00,
2013-09-10 19:32:00,82.9,76.9,29.61,East,91,0.0,0.0,82,0.01,,,0.01,VWS V14.01,2013-09-10 23:32:00,
2013-09-10 19:34:00,82.9,76.9,29.61,East,91,0.0,0.0,82,0.01,,,0.01,VWS V14.01,2013-09-10 23:34:00,
2013-09-10 19:35:00,83.0,76.9,29.61,East,91,0.0,0.0,82,0.01,,,0.01,VWS V14.01,2013-09-10 23:35:00,
2013-09-10 19:36:00,82.9,76.8,29.61,East,91,0.0,0.0,82,0.01,,,0.01,VWS V14.01,2013-09-10 23:36:00,
2013-09-10 19:38:00,82.8,76.6,29.61,East,91,0.0,0.0,82,0.01,,,0.01,VWS V14.01,2013-09-10 23:38:00,
2013-09-10 19:40:00,82.7,76.3,29.61,East,91,0.0,0.0,81,0.01,,,0.01,VWS V14.01,2013-09-10 23:40:00,
2013-09-10 19:42:00,82.6,76.4,29.61,East,91,0.0,0.0,82,0.01,,,0.01,VWS V14.01,2013-09-10 23:42:00,
2013-09-10 19:44:00,82.4,76.2,29.61,East,91,0.0,0.0,82,0.01,,,0.01,VWS V14.01,2013-09-10 23:44:00,
2013-09-10 19:45:00,82.5,76.4,29.61,East,91,0.0,0.0,82,0.01,,,0.01,VWS V14.01,2013-09-10 23:45:00,
2013-09-10 19:46:00,82.5,76.5,29.61,East,91,0.0,0.0,82,0.01,,,0.01,VWS V14.01,2013-09-10 23:46:00,
2013-09-10 19:48:00,82.3,76.4,29.61,East,91,0.0,0.0,82,0.01,,,0.01,VWS V14.01,2013-09-10 23:48:00,
2013-09-10 19:50:00,82.3,76.5,29.61,East,91,0.0,0.0,83,0.01,,,0.01,VWS V14.01,2013-09-10 23:50:00,
2013-09-10 19:52:00,82.3,76.5,29.61,East,91,0.0,0.0,83,0.01,,,0.01,VWS V14.01,2013-09-10 23:52:00,
2013-09-10 19:54:00,82.1,76.2,29.61,East,91,0.0,0.0,82,0.00,,,0.01,VWS V14.01,2013-09-10 23:54:00,
2013-09-10 19:55:00,82.3,76.4,29.61,East,91,0.0,0.0,82,0.00,,,0.01,VWS V14.01,2013-09-10 23:55:00,
2013-09-10 19:56:00,82.2,76.4,29.61,East,91,0.0,0.0,83,0.00,,,0.01,VWS V14.01,2013-09-10 23:56:00,
2013-09-10 19:58:00,82.2,76.4,29.62,East,91,0.0,0.0,83,0.00,,,0.01,VWS V14.01,2013-09-10 23:58:00,
2013-09-10 20:00:00,82.2,76.3,29.61,East,91,0.0,0.0,82,0.00,,,0.01,VWS V14.01,2013-09-11 00:00:00,
2013-09-10 20:02:00,81.9,75.9,29.61,East,91,0.0,0.0,82,0.00,,,0.01,VWS V14.01,2013-09-11 00:02:00,
2013-09-10 20:04:00,81.8,75.8,29.61,East,91,0.0,0.0,82,0.00,,,0.01,VWS V14.01,2013-09-11 00:04:00,
2013-09-10 20:05:00,81.7,75.8,29.61,East,91,0.0,0.0,82,0.00,,,0.01,VWS V14.01,2013-09-11 00:05:00,
2013-09-10 20:06:00,81.8,75.8,29.61,East,91,0.0,0.0,82,0.00,,,0.01,VWS V14.01,2013-09-11 00:06:00,
2013-09-10 20:08:00,81.8,75.7,29.62,East,91,0.0,0.0,82,0.00,,,0.01,VWS V14.01,2013-09-11 00:08:00,
2013-09-10 20:10:00,81.8,75.6,29.61,East,91,0.0,0.0,82,0.00,,,0.01,VWS V14.01,2013-09-11 00:10:00,
2013-09-10 20:12:00,81.8,75.6,29.61,East,91,0.0,0.0,82,0.00,,,0.01,VWS V14.01,2013-09-11 00:12:00,
2013-09-10 20:14:00,81.7,75.5,29.62,East,91,0.0,0.0,82,0.00,,,0.01,VWS V14.01,2013-09-11 00:14:00,
2013-09-10 20:15:00,81.5,75.3,29.62,East,91,0.0,0.0,82,0.00,,,0.01,VWS V14.01,2013-09-11 00:15:00,
2013-09-10 20:16:00,81.6,75.4,29.62,East,91,0.0,0.0,82,0.00,,,0.01,VWS V14.01,2013-09-11 00:16:00,
2013-09-10 20:18:00,81.6,75.3,29.62,East,91,0.0,0.0,81,0.00,,,0.01,VWS V14.01,2013-09-11 00:18:00,
2013-09-10 20:20:00,81.4,75.1,29.62,East,91,0.0,0.0,81,0.00,,,0.01,VWS V14.01,2013-09-11 00:20:00,
2013-09-10 20:22:00,81.5,75.2,29.62,East,91,0.0,0.0,81,0.00,,,0.01,VWS V14.01,2013-09-11 00:22:00,
2013-09-10 20:24:00,81.6,75.4,29.63,East,91,0.0,0.0,82,0.00,,,0.01,VWS V14.01,2013-09-11 00:24:00,
2013-09-10 20:25:00,81.3,75.0,29.62,East,91,0.0,0.0,81,0.00,,,0.01,VWS V14.01,2013-09-11 00:25:00,
2013-09-10 20:26:00,81.4,75.2,29.62,East,91,0.0,0.0,82,0.00,,,0.01,VWS V14.01,2013-09-11 00:26:00,
2013-09-10 20:28:00,81.6,75.3,29.62,East,91,0.0,0.0,81,0.00,,,0.01,VWS V14.01,2013-09-11 00:28:00,
2013-09-10 20:30:00,81.5,75.3,29.63,East,91,0.0,0.0,81,0.00,,,0.01,VWS V14.01,2013-09-11 00:30:00,
2013-09-10 20:32:00,81.6,75.4,29.62,East,91,0.0,0.0,81,0.00,,,0.01,VWS V14.01,2013-09-11 00:32:00,
2013-09-10 20:34:00,81.6,75.3,29.63,East,91,0.0,0.0,81,0.00,,,0.01,VWS V14.01,2013-09-11 00:34:00,
2013-09-10 20:35:00,81.4,75.2,29.63,East,91,0.0,0.0,82,0.00,,,0.01,VWS V14.01,2013-09-11 00:35:00,
2013-09-10 20:36:00,81.5,75.3,29.63,East,91,0.0,0.0,82,0.00,,,0.01,VWS V14.01,2013-09-11 00:36:00,
2013-09-10 20:38:00,81.5,75.4,29.63,East,91,0.0,0.0,82,0.00,,,0.01,VWS V14.01,2013-09-11 00:38:00,
2013-09-10 20:40:00,81.2,75.1,29.63,East,91,0.0,0.0,82,0.00,,,0.01,VWS V14.01,2013-09-11 00:40:00,
2013-09-10 20:42:00,81.2,75.2,29.62,East,91,0.0,0.0,82,0.00,,,0.01,VWS V14.01,2013-09-11 00:42:00,
2013-09-10 20:44:00,81.1,75.2,29.63,East,91,0.0,0.0,82,0.00,,,0.01,VWS V14.01,2013-09-11 00:44:00,
2013-09-10 20:45:00,81.2,75.3,29.63,East,91,0.0,0.0,82,0.00,,,0.01,VWS V14.01,2013-09-11 00:45:00,
2013-09-10 20:46:00,80.9,75.0,29.63,East,91,0.0,0.0,82,0.00,,,0.01,VWS V14.01,2013-09-11 00:46:00,
2013-09-10 20:48:00,81.1,75.3,29.63,East,91,0.0,0.0,83,0.00,,,0.01,VWS V14.01,2013-09-11 00:48:00,
2013-09-10 20:50:00,81.0,75.3,29.63,East,91,0.0,0.0,83,0.00,,,0.01,VWS V14.01,2013-09-11 00:50:00,
2013-09-10 20:52:00,81.0,75.3,29.63,East,91,0.0,0.0,83,0.00,,,0.01,VWS V14.01,2013-09-11 00:52:00,
2013-09-10 20:54:00,81.0,75.3,29.63,East,91,0.0,0.0,83,0.00,,,0.01,VWS V14.01,2013-09-11 00:54:00,
2013-09-10 20:56:00,80.9,75.3,29.63,East,91,0.0,0.0,83,0.00,,,0.01,VWS V14.01,2013-09-11 00:56:00,
2013-09-10 20:58:00,80.9,75.3,29.63,East,91,0.0,0.0,83,0.00,,,0.01,VWS V14.01,2013-09-11 00:58:00,
2013-09-10 21:00:00,80.9,75.4,29.63,East,91,0.0,0.0,83,0.00,,,0.01,VWS V14.01,2013-09-11 01:00:00,
2013-09-10 21:01:00,80.6,75.1,29.63,East,91,0.0,0.0,83,0.00,,,0.01,VWS V14.01,2013-09-11 01:01:00,
2013-09-10 21:02:00,80.8,75.3,29.63,East,91,0.0,0.0,83,0.00,,,0.01,VWS V14.01,2013-09-11 01:02:00,
2013-09-10 21:06:00,80.5,75.1,29.63,East,91,0.0,0.0,84,0.00,,,0.01,VWS V14.01,2013-09-11 01:06:00,
2013-09-10 21:07:00,80.5,75.1,29.63,East,91,0.0,0.0,84,0.00,,,0.01,VWS V14.01,2013-09-11 01:07:00,
2013-09-10 21:08:00,80.7,75.3,29.64,East,91,0.0,0.0,84,0.00,,,0.01,VWS V14.01,2013-09-11 01:08:00,
2013-09-10 21:10:00,80.5,75.0,29.63,East,91,0.0,0.0,83,0.00,,,0.01,VWS V14.01,2013-09-11 01:10:00,
2013-09-10 21:12:00,80.4,74.9,29.63,East,91,0.0,0.0,84,0.00,,,0.01,VWS V14.01,2013-09-11 01:12:00,
2013-09-10 21:14:00,80.6,75.1,29.63,East,91,0.0,0.0,83,0.00,,,0.01,VWS V14.01,2013-09-11 01:14:00,
2013-09-10 21:16:00,80.5,75.0,29.63,East,91,0.0,0.0,83,0.00,,,0.01,VWS V14.01,2013-09-11 01:16:00,
2013-09-10 21:17:00,80.4,74.9,29.63,East,91,0.0,0.0,83,0.00,,,0.01,VWS V14.01,2013-09-11 01:17:00,
2013-09-10 21:18:00,80.5,75.3,29.63,East,91,0.0,0.0,84,0.00,,,0.01,VWS V14.01,2013-09-11 01:18:00,
2013-09-10 21:20:00,80.5,75.2,29.64,East,91,0.0,0.0,84,0.00,,,0.01,VWS V14.01,2013-09-11 01:20:00,
2013-09-10 21:57:00,80.3,75.6,29.64,East,91,0.0,0.0,86,0.00,,,0.01,VWS V14.01,2013-09-11 01:57:00,
2013-09-10 22:01:00,80.3,75.6,29.63,East,91,0.0,0.0,86,0.00,,,0.01,VWS V14.01,2013-09-11 02:01:00,
2013-09-10 22:06:00,80.3,75.7,29.63,East,91,0.0,0.0,86,0.00,,,0.01,VWS V14.01,2013-09-11 02:06:00,
2013-09-10 22:11:00,80.4,75.8,29.64,East,91,0.0,0.0,86,0.00,,,0.01,VWS V14.01,2013-09-11 02:11:00,
2013-09-10 22:16:00,80.3,76.0,29.64,East,91,0.0,0.0,87,0.00,,,0.01,VWS V14.01,2013-09-11 02:16:00,
2013-09-10 22:21:00,80.1,75.8,29.64,East,91,0.0,0.0,87,0.00,,,0.01,VWS V14.01,2013-09-11 02:21:00,
2013-09-10 22:27:00,80.2,75.8,29.64,East,91,0.0,0.0,86,0.00,,,0.01,VWS V14.01,2013-09-11 02:27:00,
2013-09-10 22:32:00,80.2,75.8,29.64,East,91,0.0,0.0,87,0.00,,,0.01,VWS V14.01,2013-09-11 02:32:00,
2013-09-10 22:37:00,80.1,75.8,29.64,East,91,0.0,0.0,87,0.00,,,0.01,VWS V14.01,2013-09-11 02:37:00,
2013-09-10 22:42:00,80.1,75.8,29.64,East,91,0.0,0.0,87,0.00,,,0.01,VWS V14.01,2013-09-11 02:42:00,
2013-09-10 22:47:00,80.1,75.8,29.64,East,91,0.0,0.0,87,0.00,,,0.01,VWS V14.01,2013-09-11 02:47:00,
2013-09-10 22:52:00,80.0,75.8,29.63,East,91,0.0,0.0,87,0.00,,,0.01,VWS V14.01,2013-09-11 02:52:00,
2013-09-10 22:57:00,80.1,75.9,29.63,East,91,0.0,0.0,87,0.00,,,0.01,VWS V14.01,2013-09-11 02:57:00,
2013-09-10 23:02:00,80.1,75.8,29.63,East,91,0.0,0.0,87,0.00,,,0.01,VWS V14.01,2013-09-11 03:02:00,
2013-09-10 23:07:00,79.9,75.8,29.64,East,91,0.0,0.0,87,0.00,,,0.01,VWS V14.01,2013-09-11 03:07:00,
2013-09-10 23:12:00,79.9,75.8,29.64,East,91,0.0,0.0,87,0.00,,,0.01,VWS V14.01,2013-09-11 03:12:00,
2013-09-10 23:17:00,79.7,75.7,29.63,East,91,0.0,0.0,88,0.00,,,0.01,VWS V14.01,2013-09-11 03:17:00,
2013-09-10 23:22:00,79.4,75.6,29.63,East,91,0.0,0.0,88,0.00,,,0.01,VWS V14.01,2013-09-11 03:22:00,
2013-09-10 23:27:00,79.4,75.6,29.63,East,91,0.0,0.0,88,0.00,,,0.01,VWS V14.01,2013-09-11 03:27:00,
2013-09-10 23:32:00,79.7,75.9,29.63,East,91,0.0,0.0,88,0.00,,,0.01,VWS V14.01,2013-09-11 03:32:00,
2013-09-10 23:37:00,79.4,75.6,29.63,East,91,0.0,0.0,88,0.00,,,0.01,VWS V14.01,2013-09-11 03:37:00,
2013-09-10 23:42:00,79.5,75.7,29.64,East,91,0.0,0.0,88,0.00,,,0.01,VWS V14.01,2013-09-11 03:42:00,
2013-09-10 23:47:00,79.8,76.0,29.64,East,91,0.0,0.0,88,0.00,,,0.01,VWS V14.01,2013-09-11 03:47:00,
2013-09-10 23:52:00,79.7,75.9,29.64,East,91,0.0,0.0,88,0.00,,,0.01,VWS V14.01,2013-09-11 03:52:00,
2013-09-10 23:57:00,79.4,75.6,29.64,East,91,0.0,0.0,88,0.00,,,0.01,VWS V14.01,2013-09-11 03:57:00,